Time,TemperatureF,DewpointF,PressureIn,WindDirection,WindDirectionDegrees,WindSpeedMPH,WindSpeedGustMPH,Humidity,HourlyPrecipIn,Conditions,Clouds,dailyrainin,SoftwareType,DateUTC
2013-04-01 00:00:00,41.8,31.3,29.62,WNW,295,24.0,30.0,66,0.00,,---,0.05,VWS V14.00,2013-04-01 04:00:00,
2013-04-01 00:05:00,41.3,30.1,29.62,West,275,15.0,22.0,64,0.00,,---,0.00,VWS V14.00,2013-04-01 04:05:00,
2013-04-01 00:10:00,41.1,29.1,29.62,SW,229,13.0,29.0,62,0.00,,---,0.00,VWS V14.00,2013-04-01 04:10:00,
2013-04-01 00:12:00,41.1,29.1,29.62,West,277,22.0,29.0,62,0.00,,---,0.00,VWS V14.00,2013-04-01 04:12:00,
2013-04-01 00:15:00,40.8,28.8,29.62,WNW,287,16.0,29.0,62,0.00,,---,0.00,VWS V14.00,2013-04-01 04:15:00,
2013-04-01 00:16:00,40.8,28.8,29.62,WNW,295,13.0,29.0,62,0.00,,---,0.00,VWS V14.00,2013-04-01 04:16:00,
2013-04-01 00:17:00,40.8,28.8,29.62,West,274,8.0,29.0,62,0.00,,---,0.00,VWS V14.00,2013-04-01 04:17:00,
2013-04-01 00:20:00,40.6,28.6,29.62,WNW,285,13.0,29.0,62,0.00,,---,0.00,VWS V14.00,2013-04-01 04:20:00,
2013-04-01 00:21:00,40.5,28.5,29.62,WNW,289,9.0,29.0,62,0.00,,---,0.00,VWS V14.00,2013-04-01 04:21:00,
2013-04-01 00:23:00,40.3,28.7,29.62,WNW,282,11.0,29.0,63,0.00,,---,0.00,VWS V14.00,2013-04-01 04:23:00,
2013-04-01 00:25:00,40.2,28.6,29.62,WSW,254,7.0,29.0,63,0.00,,---,0.00,VWS V14.00,2013-04-01 04:25:00,
2013-04-01 00:26:00,40.2,28.6,29.62,West,275,9.0,29.0,63,0.00,,---,0.00,VWS V14.00,2013-04-01 04:26:00,
2013-04-01 00:27:00,40.1,28.5,29.62,WNW,294,13.0,29.0,63,0.00,,---,0.00,VWS V14.00,2013-04-01 04:27:00,
2013-04-01 00:28:00,40.1,28.5,29.62,WNW,289,13.0,29.0,63,0.00,,---,0.00,VWS V14.00,2013-04-01 04:28:00,
2013-04-01 00:31:00,39.9,28.3,29.63,West,263,20.0,29.0,63,0.00,,---,0.00,VWS V14.00,2013-04-01 04:31:00,
2013-04-01 00:32:00,39.8,28.2,29.63,WSW,244,11.0,29.0,63,0.00,,---,0.00,VWS V14.00,2013-04-01 04:32:00,
2013-04-01 00:33:00,39.8,28.2,29.63,SW,233,14.0,29.0,63,0.00,,---,0.00,VWS V14.00,2013-04-01 04:33:00,
2013-04-01 00:36:00,39.5,28.0,29.63,WNW,282,13.0,29.0,63,0.00,,---,0.00,VWS V14.00,2013-04-01 04:36:00,
2013-04-01 00:37:00,39.5,28.0,29.63,WNW,294,13.0,29.0,63,0.00,,---,0.00,VWS V14.00,2013-04-01 04:37:00,
2013-04-01 00:38:00,39.5,28.0,29.63,WNW,284,20.0,29.0,63,0.00,,---,0.00,VWS V14.00,2013-04-01 04:38:00,
2013-04-01 00:41:00,39.2,28.1,29.63,West,272,10.0,29.0,64,0.00,,---,0.00,VWS V14.00,2013-04-01 04:41:00,
2013-04-01 00:42:00,39.2,28.1,29.63,WNW,294,4.0,29.0,64,0.00,,---,0.00,VWS V14.00,2013-04-01 04:42:00,
2013-04-01 00:43:00,39.2,28.1,29.63,WNW,296,9.0,29.0,64,0.00,,---,0.00,VWS V14.00,2013-04-01 04:43:00,
2013-04-01 00:46:00,38.9,28.1,29.63,West,281,14.0,29.0,65,0.00,,---,0.00,VWS V14.00,2013-04-01 04:46:00,
2013-04-01 00:48:00,38.9,28.1,29.63,WNW,288,10.0,29.0,65,0.00,,---,0.00,VWS V14.00,2013-04-01 04:48:00,
2013-04-01 00:52:00,38.8,28.1,29.63,West,270,10.0,29.0,65,0.00,,---,0.00,VWS V14.00,2013-04-01 04:52:00,
2013-04-01 00:53:00,38.6,27.9,29.63,West,274,13.0,29.0,65,0.00,,---,0.00,VWS V14.00,2013-04-01 04:53:00,
2013-04-01 00:57:00,38.5,28.1,29.63,WNW,289,13.0,29.0,66,0.00,,---,0.00,VWS V14.00,2013-04-01 04:57:00,
2013-04-01 00:58:00,38.5,28.1,29.63,West,271,7.0,29.0,66,0.00,,---,0.00,VWS V14.00,2013-04-01 04:58:00,
2013-04-01 00:59:00,38.5,28.1,29.63,West,270,11.0,29.0,66,0.00,,---,0.00,VWS V14.00,2013-04-01 04:59:00,
2013-04-01 01:02:00,38.3,28.0,29.63,West,281,15.0,16.0,66,0.00,,---,0.00,VWS V14.00,2013-04-01 05:02:00,
2013-04-01 01:03:00,38.2,28.2,29.63,SW,227,14.0,16.0,67,0.00,,---,0.00,VWS V14.00,2013-04-01 05:03:00,
2013-04-01 01:04:00,38.2,28.2,29.63,WNW,294,8.0,16.0,67,0.00,,---,0.00,VWS V14.00,2013-04-01 05:04:00,
2013-04-01 01:07:00,38.2,28.2,29.63,West,272,14.0,17.0,67,0.00,,---,0.00,VWS V14.00,2013-04-01 05:07:00,
2013-04-01 01:08:00,38.2,28.2,29.63,WNW,291,10.0,17.0,67,0.00,,---,0.00,VWS V14.00,2013-04-01 05:08:00,
2013-04-01 01:09:00,38.0,28.0,29.63,WNW,289,9.0,17.0,67,0.00,,---,0.00,VWS V14.00,2013-04-01 05:09:00,
2013-04-01 01:13:00,37.9,27.9,29.63,WNW,285,14.0,21.0,67,0.00,,---,0.00,VWS V14.00,2013-04-01 05:13:00,
2013-04-01 01:14:00,37.9,27.9,29.63,West,280,11.0,21.0,67,0.00,,---,0.00,VWS V14.00,2013-04-01 05:14:00,
2013-04-01 01:18:00,37.8,27.8,29.64,WNW,289,17.0,22.0,67,0.00,,---,0.00,VWS V14.00,2013-04-01 05:18:00,
2013-04-01 01:19:00,37.8,27.8,29.64,WNW,292,8.0,22.0,67,0.00,,---,0.00,VWS V14.00,2013-04-01 05:19:00,
2013-04-01 01:23:00,37.8,27.8,29.64,WNW,289,11.0,22.0,67,0.00,,---,0.00,VWS V14.00,2013-04-01 05:23:00,
2013-04-01 01:24:00,37.8,27.8,29.64,WNW,301,7.0,22.0,67,0.00,,---,0.00,VWS V14.00,2013-04-01 05:24:00,
2013-04-01 01:28:00,37.6,27.6,29.64,West,274,10.0,22.0,67,0.00,,---,0.00,VWS V14.00,2013-04-01 05:28:00,
2013-04-01 01:29:00,37.6,27.6,29.64,WNW,282,9.0,22.0,67,0.00,,---,0.00,VWS V14.00,2013-04-01 05:29:00,
2013-04-01 01:30:00,37.5,27.5,29.64,WNW,287,8.0,22.0,67,0.00,,---,0.00,VWS V14.00,2013-04-01 05:30:00,
2013-04-01 01:33:00,37.3,27.7,29.63,WNW,289,6.0,22.0,68,0.00,,---,0.00,VWS V14.00,2013-04-01 05:33:00,
2013-04-01 01:34:00,37.3,27.7,29.63,WNW,282,8.0,22.0,68,0.00,,---,0.00,VWS V14.00,2013-04-01 05:34:00,
2013-04-01 01:35:00,37.3,27.7,29.63,WNW,284,9.0,22.0,68,0.00,,---,0.00,VWS V14.00,2013-04-01 05:35:00,
2013-04-01 01:38:00,37.3,27.7,29.63,West,265,9.0,22.0,68,0.00,,---,0.00,VWS V14.00,2013-04-01 05:38:00,
2013-04-01 01:39:00,37.3,27.7,29.63,West,277,9.0,22.0,68,0.00,,---,0.00,VWS V14.00,2013-04-01 05:39:00,
2013-04-01 01:40:00,37.2,27.6,29.63,West,280,9.0,22.0,68,0.00,,---,0.00,VWS V14.00,2013-04-01 05:40:00,
2013-04-01 01:43:00,37.2,27.6,29.63,WNW,282,8.0,22.0,68,0.00,,---,0.00,VWS V14.00,2013-04-01 05:43:00,
2013-04-01 01:44:00,37.2,27.6,29.63,West,277,13.0,22.0,68,0.00,,---,0.00,VWS V14.00,2013-04-01 05:44:00,
2013-04-01 01:45:00,37.2,27.6,29.63,West,261,7.0,22.0,68,0.00,,---,0.00,VWS V14.00,2013-04-01 05:45:00,
2013-04-01 01:48:00,37.0,27.4,29.64,WNW,284,10.0,22.0,68,0.00,,---,0.00,VWS V14.00,2013-04-01 05:48:00,
2013-04-01 01:49:00,37.0,27.4,29.64,WNW,291,8.0,22.0,68,0.00,,---,0.00,VWS V14.00,2013-04-01 05:49:00,
2013-04-01 01:50:00,37.0,27.4,29.64,WNW,295,7.0,22.0,68,0.00,,---,0.00,VWS V14.00,2013-04-01 05:50:00,
2013-04-01 01:53:00,36.9,27.3,29.64,West,275,6.0,22.0,68,0.00,,---,0.00,VWS V14.00,2013-04-01 05:53:00,
2013-04-01 01:55:00,36.8,27.6,29.64,West,267,4.0,22.0,69,0.00,,---,0.00,VWS V14.00,2013-04-01 05:55:00,
2013-04-01 01:59:00,36.8,27.6,29.64,West,281,13.0,22.0,69,0.00,,---,0.00,VWS V14.00,2013-04-01 05:59:00,
2013-04-01 02:00:00,36.6,27.4,29.64,WNW,294,8.0,22.0,69,0.00,,---,0.00,VWS V14.00,2013-04-01 06:00:00,
2013-04-01 02:04:00,36.6,27.4,29.64,WNW,284,8.0,18.0,69,0.00,,---,0.00,VWS V14.00,2013-04-01 06:04:00,
2013-04-01 02:05:00,36.6,27.4,29.64,WNW,292,6.0,18.0,69,0.00,,---,0.00,VWS V14.00,2013-04-01 06:05:00,
2013-04-01 02:06:00,36.6,27.4,29.64,WNW,285,7.0,18.0,69,0.00,,---,0.00,VWS V14.00,2013-04-01 06:06:00,
2013-04-01 02:09:00,36.5,27.3,29.64,WSW,254,6.0,18.0,69,0.00,,---,0.00,VWS V14.00,2013-04-01 06:09:00,
2013-04-01 02:10:00,36.5,27.3,29.64,West,280,8.0,18.0,69,0.00,,---,0.00,VWS V14.00,2013-04-01 06:10:00,
2013-04-01 02:11:00,36.5,27.7,29.64,West,271,14.0,18.0,70,0.00,,---,0.00,VWS V14.00,2013-04-01 06:11:00,
2013-04-01 02:14:00,36.3,27.5,29.64,WNW,291,15.0,18.0,70,0.00,,---,0.00,VWS V14.00,2013-04-01 06:14:00,
2013-04-01 02:15:00,36.3,27.5,29.64,WNW,301,8.0,18.0,70,0.00,,---,0.00,VWS V14.00,2013-04-01 06:15:00,
2013-04-01 02:16:00,36.3,27.5,29.65,West,280,15.0,18.0,70,0.00,,---,0.00,VWS V14.00,2013-04-01 06:16:00,
2013-04-01 02:19:00,36.3,27.5,29.65,WNW,292,9.0,18.0,70,0.00,,---,0.00,VWS V14.00,2013-04-01 06:19:00,
2013-04-01 02:20:00,36.3,27.5,29.65,WNW,289,10.0,18.0,70,0.00,,---,0.00,VWS V14.00,2013-04-01 06:20:00,
2013-04-01 02:21:00,36.3,27.8,29.65,WNW,294,10.0,18.0,71,0.00,,---,0.00,VWS V14.00,2013-04-01 06:21:00,
2013-04-01 02:24:00,36.3,27.8,29.65,SSW,209,8.0,18.0,71,0.00,,---,0.00,VWS V14.00,2013-04-01 06:24:00,
2013-04-01 02:25:00,36.3,27.8,29.65,WNW,288,8.0,18.0,71,0.00,,---,0.00,VWS V14.00,2013-04-01 06:25:00,
2013-04-01 02:26:00,36.3,27.8,29.65,WNW,298,7.0,18.0,71,0.00,,---,0.00,VWS V14.00,2013-04-01 06:26:00,
2013-04-01 02:29:00,36.2,27.7,29.65,West,278,11.0,18.0,71,0.00,,---,0.00,VWS V14.00,2013-04-01 06:29:00,
2013-04-01 02:30:00,36.2,27.7,29.65,NW,305,7.0,18.0,71,0.00,,---,0.00,VWS V14.00,2013-04-01 06:30:00,
2013-04-01 02:31:00,36.2,27.7,29.65,WNW,298,8.0,18.0,71,0.00,,---,0.00,VWS V14.00,2013-04-01 06:31:00,
2013-04-01 02:34:00,36.2,27.7,29.65,WNW,295,6.0,18.0,71,0.00,,---,0.00,VWS V14.00,2013-04-01 06:34:00,
2013-04-01 02:35:00,36.2,27.7,29.65,WNW,301,9.0,18.0,71,0.00,,---,0.00,VWS V14.00,2013-04-01 06:35:00,
2013-04-01 02:36:00,36.2,27.7,29.65,WNW,301,11.0,18.0,71,0.00,,---,0.00,VWS V14.00,2013-04-01 06:36:00,
2013-04-01 02:40:00,36.2,28.1,29.65,North,357,7.0,18.0,72,0.00,,---,0.00,VWS V14.00,2013-04-01 06:40:00,
2013-04-01 02:42:00,36.2,28.1,29.65,NNE,16,6.0,18.0,72,0.00,,---,0.00,VWS V14.00,2013-04-01 06:42:00,
2013-04-01 02:45:00,36.0,27.5,29.65,NW,308,14.0,22.0,71,0.00,,---,0.00,VWS V14.00,2013-04-01 06:45:00,
2013-04-01 02:47:00,35.8,27.7,29.66,NNW,333,11.0,22.0,72,0.00,,---,0.00,VWS V14.00,2013-04-01 06:47:00,
2013-04-01 02:50:00,35.5,27.4,29.66,NNW,346,10.0,22.0,72,0.00,,---,0.00,VWS V14.00,2013-04-01 06:50:00,
2013-04-01 02:52:00,35.3,27.2,29.66,NNW,332,9.0,22.0,72,0.00,,---,0.00,VWS V14.00,2013-04-01 06:52:00,
2013-04-01 02:55:00,34.9,26.8,29.66,NNW,336,15.0,22.0,72,0.00,,---,0.00,VWS V14.00,2013-04-01 06:55:00,
2013-04-01 02:56:00,34.9,27.1,29.66,North,0,7.0,22.0,73,0.00,,---,0.00,VWS V14.00,2013-04-01 06:56:00,
2013-04-01 02:57:00,34.7,27.0,29.66,NW,316,7.0,22.0,73,0.00,,---,0.00,VWS V14.00,2013-04-01 06:57:00,
2013-04-01 03:00:00,34.6,26.9,29.66,NW,309,15.0,22.0,73,0.00,,---,0.00,VWS V14.00,2013-04-01 07:00:00,
2013-04-01 03:01:00,34.6,26.9,29.68,NNW,335,8.0,22.0,73,0.00,,---,0.00,VWS V14.00,2013-04-01 07:01:00,
2013-04-01 03:03:00,34.4,27.0,29.68,NW,312,8.0,16.0,74,0.00,,---,0.00,VWS V14.00,2013-04-01 07:03:00,
2013-04-01 03:05:00,34.4,27.0,29.68,NNW,332,2.0,16.0,74,0.00,,---,0.00,VWS V14.00,2013-04-01 07:05:00,
2013-04-01 03:06:00,34.3,26.9,29.68,North,0,6.0,16.0,74,0.00,,---,0.00,VWS V14.00,2013-04-01 07:06:00,
2013-04-01 03:08:00,34.3,26.9,29.68,NW,306,0.0,16.0,74,0.00,,---,0.00,VWS V14.00,2013-04-01 07:08:00,
2013-04-01 03:10:00,34.1,26.7,29.68,NW,315,8.0,16.0,74,0.00,,---,0.00,VWS V14.00,2013-04-01 07:10:00,
2013-04-01 03:11:00,34.1,26.7,29.68,North,6,6.0,16.0,74,0.00,,---,0.00,VWS V14.00,2013-04-01 07:11:00,
2013-04-01 03:13:00,34.1,26.7,29.68,NW,316,6.0,16.0,74,0.00,,---,0.00,VWS V14.00,2013-04-01 07:13:00,
2013-04-01 03:15:00,34.1,26.7,29.68,WNW,294,8.0,16.0,74,0.00,,---,0.00,VWS V14.00,2013-04-01 07:15:00,
2013-04-01 03:16:00,34.0,26.6,29.69,WNW,301,6.0,16.0,74,0.00,,---,0.00,VWS V14.00,2013-04-01 07:16:00,
2013-04-01 03:18:00,34.0,26.6,29.69,NW,325,6.0,16.0,74,0.00,,---,0.00,VWS V14.00,2013-04-01 07:18:00,
2013-04-01 03:20:00,34.0,26.9,29.69,WNW,299,6.0,17.0,75,0.00,,---,0.00,VWS V14.00,2013-04-01 07:20:00,
2013-04-01 03:21:00,34.0,26.9,29.69,NNW,329,9.0,17.0,75,0.00,,---,0.00,VWS V14.00,2013-04-01 07:21:00,
2013-04-01 03:23:00,34.0,26.9,29.69,NW,304,9.0,17.0,75,0.00,,---,0.00,VWS V14.00,2013-04-01 07:23:00,
2013-04-01 03:25:00,34.0,26.9,29.69,NW,304,15.0,21.0,75,0.00,,---,0.00,VWS V14.00,2013-04-01 07:25:00,
2013-04-01 03:26:00,33.8,26.4,29.69,NW,313,17.0,21.0,74,0.00,,---,0.00,VWS V14.00,2013-04-01 07:26:00,
2013-04-01 03:28:00,33.8,26.4,29.69,NW,313,16.0,24.0,74,0.00,,---,0.00,VWS V14.00,2013-04-01 07:28:00,
2013-04-01 03:30:00,33.8,26.1,29.69,NNW,336,10.0,24.0,73,0.00,,---,0.00,VWS V14.00,2013-04-01 07:30:00,
2013-04-01 03:31:00,33.8,26.1,29.69,WNW,299,9.0,24.0,73,0.00,,---,0.00,VWS V14.00,2013-04-01 07:31:00,
2013-04-01 03:32:00,33.8,25.7,29.69,NW,320,11.0,24.0,72,0.00,,---,0.00,VWS V14.00,2013-04-01 07:32:00,
2013-04-01 03:33:00,33.8,25.7,29.69,NW,313,13.0,24.0,72,0.00,,---,0.00,VWS V14.00,2013-04-01 07:33:00,
2013-04-01 03:36:00,33.8,25.4,29.69,NNW,335,9.0,24.0,71,0.00,,---,0.00,VWS V14.00,2013-04-01 07:36:00,
2013-04-01 03:37:00,33.8,25.1,29.69,West,278,10.0,24.0,70,0.00,,---,0.00,VWS V14.00,2013-04-01 07:37:00,
2013-04-01 03:39:00,33.8,25.1,29.69,NW,313,7.0,24.0,70,0.00,,---,0.00,VWS V14.00,2013-04-01 07:39:00,
2013-04-01 03:41:00,33.8,25.1,29.69,North,0,4.0,24.0,70,0.00,,---,0.00,VWS V14.00,2013-04-01 07:41:00,
2013-04-01 03:42:00,33.8,24.7,29.69,NW,312,16.0,24.0,69,0.00,,---,0.00,VWS V14.00,2013-04-01 07:42:00,
2013-04-01 03:44:00,33.7,24.6,29.69,NW,318,7.0,24.0,69,0.00,,---,0.00,VWS V14.00,2013-04-01 07:44:00,
2013-04-01 03:46:00,33.7,24.6,29.70,WNW,301,16.0,24.0,69,0.00,,---,0.00,VWS V14.00,2013-04-01 07:46:00,
2013-04-01 03:47:00,33.7,24.6,29.70,NNW,344,4.0,24.0,69,0.00,,---,0.00,VWS V14.00,2013-04-01 07:47:00,
2013-04-01 03:49:00,33.7,24.6,29.70,North,0,4.0,24.0,69,0.00,,---,0.00,VWS V14.00,2013-04-01 07:49:00,
2013-04-01 03:51:00,33.7,24.6,29.70,NNW,335,7.0,24.0,69,0.00,,---,0.00,VWS V14.00,2013-04-01 07:51:00,
2013-04-01 03:52:00,33.7,24.6,29.70,WNW,301,11.0,24.0,69,0.00,,---,0.00,VWS V14.00,2013-04-01 07:52:00,
2013-04-01 03:54:00,33.7,24.6,29.70,WNW,302,13.0,24.0,69,0.00,,---,0.00,VWS V14.00,2013-04-01 07:54:00,
2013-04-01 03:56:00,33.7,24.6,29.70,WNW,296,17.0,24.0,69,0.00,,---,0.00,VWS V14.00,2013-04-01 07:56:00,
2013-04-01 03:58:00,33.5,24.4,29.70,NW,323,15.0,24.0,69,0.00,,---,0.00,VWS V14.00,2013-04-01 07:58:00,
2013-04-01 03:59:00,33.5,24.4,29.70,WNW,299,8.0,24.0,69,0.00,,---,0.00,VWS V14.00,2013-04-01 07:59:00,
2013-04-01 04:02:00,33.5,24.4,29.71,North,6,11.0,14.0,69,0.00,,---,0.00,VWS V14.00,2013-04-01 08:02:00,
2013-04-01 04:03:00,33.5,24.4,29.71,North,0,11.0,20.0,69,0.00,,---,0.00,VWS V14.00,2013-04-01 08:03:00,
2013-04-01 04:04:00,33.5,24.4,29.71,NW,319,15.0,20.0,69,0.00,,---,0.00,VWS V14.00,2013-04-01 08:04:00,
2013-04-01 04:07:00,33.4,24.3,29.71,NNW,335,11.0,20.0,69,0.00,,---,0.00,VWS V14.00,2013-04-01 08:07:00,
2013-04-01 04:08:00,33.4,24.3,29.71,NW,305,14.0,20.0,69,0.00,,---,0.00,VWS V14.00,2013-04-01 08:08:00,
2013-04-01 04:09:00,33.4,24.7,29.71,NNW,340,8.0,20.0,70,0.00,,---,0.00,VWS V14.00,2013-04-01 08:09:00,
2013-04-01 04:12:00,33.1,24.7,29.71,NW,319,9.0,20.0,71,0.00,,---,0.00,VWS V14.00,2013-04-01 08:12:00,
2013-04-01 04:13:00,33.1,24.7,29.71,WNW,301,13.0,20.0,71,0.00,,---,0.00,VWS V14.00,2013-04-01 08:13:00,
2013-04-01 04:14:00,33.1,24.7,29.71,NW,306,21.0,21.0,71,0.00,,---,0.00,VWS V14.00,2013-04-01 08:14:00,
2013-04-01 04:17:00,32.8,24.5,29.72,NNE,30,6.0,22.0,71,0.00,,---,0.00,VWS V14.00,2013-04-01 08:17:00,
2013-04-01 04:18:00,32.8,24.1,29.72,NW,304,2.0,22.0,70,0.00,,---,0.00,VWS V14.00,2013-04-01 08:18:00,
2013-04-01 04:19:00,32.7,23.7,29.72,NNW,330,7.0,22.0,69,0.00,,---,0.00,VWS V14.00,2013-04-01 08:19:00,
2013-04-01 04:22:00,32.5,23.1,29.72,WNW,295,14.0,22.0,68,0.00,,---,0.00,VWS V14.00,2013-04-01 08:22:00,
2013-04-01 04:23:00,32.4,23.0,29.72,WNW,295,15.0,22.0,68,0.00,,---,0.00,VWS V14.00,2013-04-01 08:23:00,
2013-04-01 04:24:00,32.4,22.3,29.72,WNW,285,17.0,22.0,66,0.00,,---,0.00,VWS V14.00,2013-04-01 08:24:00,
2013-04-01 04:28:00,32.4,22.3,29.72,WNW,295,8.0,22.0,66,0.00,,---,0.00,VWS V14.00,2013-04-01 08:28:00,
2013-04-01 04:30:00,32.4,22.0,29.72,NW,306,16.0,22.0,65,0.00,,---,0.00,VWS V14.00,2013-04-01 08:30:00,
2013-04-01 04:33:00,32.2,21.8,29.72,WNW,301,7.0,23.0,65,0.00,,---,0.00,VWS V14.00,2013-04-01 08:33:00,
2013-04-01 04:34:00,32.2,21.8,29.72,NW,304,13.0,23.0,65,0.00,,---,0.00,VWS V14.00,2013-04-01 08:34:00,
2013-04-01 04:35:00,32.2,21.8,29.72,WNW,289,17.0,23.0,65,0.00,,---,0.00,VWS V14.00,2013-04-01 08:35:00,
2013-04-01 04:38:00,32.1,21.7,29.72,WNW,292,17.0,23.0,65,0.00,,---,0.00,VWS V14.00,2013-04-01 08:38:00,
2013-04-01 04:39:00,32.1,21.7,29.72,NW,305,13.0,23.0,65,0.00,,---,0.00,VWS V14.00,2013-04-01 08:39:00,
2013-04-01 04:40:00,32.1,21.7,29.72,WSW,256,13.0,23.0,65,0.00,,---,0.00,VWS V14.00,2013-04-01 08:40:00,
2013-04-01 04:43:00,31.9,21.5,29.72,NW,315,7.0,23.0,65,0.00,,---,0.00,VWS V14.00,2013-04-01 08:43:00,
2013-04-01 04:44:00,31.9,21.5,29.72,NW,318,6.0,23.0,65,0.00,,---,0.00,VWS V14.00,2013-04-01 08:44:00,
2013-04-01 04:45:00,31.9,21.5,29.72,NW,304,9.0,23.0,65,0.00,,---,0.00,VWS V14.00,2013-04-01 08:45:00,
2013-04-01 04:48:00,31.8,21.4,29.73,WNW,282,15.0,23.0,65,0.00,,---,0.00,VWS V14.00,2013-04-01 08:48:00,
2013-04-01 04:49:00,31.6,21.2,29.73,West,281,8.0,23.0,65,0.00,,---,0.00,VWS V14.00,2013-04-01 08:49:00,
2013-04-01 04:50:00,31.6,21.2,29.73,WNW,291,15.0,23.0,65,0.00,,---,0.00,VWS V14.00,2013-04-01 08:50:00,
2013-04-01 04:54:00,31.5,20.4,29.73,NW,313,6.0,23.0,63,0.00,,---,0.00,VWS V14.00,2013-04-01 08:54:00,
2013-04-01 04:55:00,31.5,20.4,29.73,West,280,14.0,23.0,63,0.00,,---,0.00,VWS V14.00,2013-04-01 08:55:00,
2013-04-01 04:59:00,31.2,19.3,29.73,NNW,330,15.0,23.0,61,0.00,,---,0.00,VWS V14.00,2013-04-01 08:59:00,
2013-04-01 05:00:00,31.2,19.0,29.73,WNW,291,9.0,23.0,60,0.00,,---,0.00,VWS V14.00,2013-04-01 09:00:00,
2013-04-01 05:04:00,31.0,18.0,29.74,NW,308,10.0,17.0,58,0.00,,---,0.00,VWS V14.00,2013-04-01 09:04:00,
2013-04-01 05:05:00,31.0,18.0,29.74,NW,316,8.0,17.0,58,0.00,,---,0.00,VWS V14.00,2013-04-01 09:05:00,
2013-04-01 05:09:00,30.9,17.5,29.74,NW,305,11.0,17.0,57,0.00,,---,0.00,VWS V14.00,2013-04-01 09:09:00,
2013-04-01 05:10:00,30.9,17.5,29.74,WNW,288,6.0,17.0,57,0.00,,---,0.00,VWS V14.00,2013-04-01 09:10:00,
2013-04-01 05:14:00,30.9,17.1,29.74,WNW,296,10.0,20.0,56,0.00,,---,0.00,VWS V14.00,2013-04-01 09:14:00,
2013-04-01 05:15:00,30.9,17.1,29.74,WNW,299,14.0,20.0,56,0.00,,---,0.00,VWS V14.00,2013-04-01 09:15:00,
2013-04-01 05:19:00,30.7,16.9,29.75,NW,313,10.0,20.0,56,0.00,,---,0.00,VWS V14.00,2013-04-01 09:19:00,
2013-04-01 05:20:00,30.7,16.9,29.75,WNW,301,8.0,20.0,56,0.00,,---,0.00,VWS V14.00,2013-04-01 09:20:00,
2013-04-01 05:25:00,30.6,16.4,29.75,NNW,340,1.0,20.0,55,0.00,,---,0.00,VWS V14.00,2013-04-01 09:25:00,
2013-04-01 05:30:00,30.6,16.4,29.75,WNW,288,14.0,20.0,55,0.00,,---,0.00,VWS V14.00,2013-04-01 09:30:00,
2013-04-01 05:31:00,30.6,16.4,29.76,WNW,294,11.0,21.0,55,0.00,,---,0.00,VWS V14.00,2013-04-01 09:31:00,
2013-04-01 05:35:00,30.4,16.2,29.76,WNW,295,10.0,21.0,55,0.00,,---,0.00,VWS V14.00,2013-04-01 09:35:00,
2013-04-01 05:36:00,30.4,16.2,29.76,NW,313,7.0,21.0,55,0.00,,---,0.00,VWS V14.00,2013-04-01 09:36:00,
2013-04-01 05:37:00,30.4,16.2,29.76,WNW,288,17.0,21.0,55,0.00,,---,0.00,VWS V14.00,2013-04-01 09:37:00,
2013-04-01 05:40:00,30.3,16.1,29.76,NW,306,6.0,21.0,55,0.00,,---,0.00,VWS V14.00,2013-04-01 09:40:00,
2013-04-01 05:41:00,30.3,16.1,29.76,WNW,295,14.0,21.0,55,0.00,,---,0.00,VWS V14.00,2013-04-01 09:41:00,
2013-04-01 05:43:00,30.3,16.1,29.76,WNW,282,11.0,21.0,55,0.00,,---,0.00,VWS V14.00,2013-04-01 09:43:00,
2013-04-01 05:45:00,30.1,15.9,29.76,West,281,13.0,21.0,55,0.00,,---,0.00,VWS V14.00,2013-04-01 09:45:00,
2013-04-01 05:46:00,30.1,15.9,29.77,WNW,295,11.0,21.0,55,0.00,,---,0.00,VWS V14.00,2013-04-01 09:46:00,
2013-04-01 05:47:00,30.1,15.5,29.77,WSW,257,17.0,21.0,54,0.00,,---,0.00,VWS V14.00,2013-04-01 09:47:00,
2013-04-01 05:48:00,30.1,15.5,29.77,North,10,6.0,21.0,54,0.00,,---,0.00,VWS V14.00,2013-04-01 09:48:00,
2013-04-01 05:50:00,30.0,15.4,29.77,NW,313,8.0,21.0,54,0.00,,---,0.00,VWS V14.00,2013-04-01 09:50:00,
2013-04-01 05:51:00,30.0,15.4,29.77,NW,305,7.0,21.0,54,0.00,,---,0.00,VWS V14.00,2013-04-01 09:51:00,
2013-04-01 05:52:00,30.0,15.0,29.77,NNW,330,6.0,21.0,53,0.00,,---,0.00,VWS V14.00,2013-04-01 09:52:00,
2013-04-01 05:53:00,30.0,15.0,29.77,NW,313,13.0,21.0,53,0.00,,---,0.00,VWS V14.00,2013-04-01 09:53:00,
2013-04-01 05:55:00,30.0,15.0,29.77,West,274,15.0,21.0,53,0.00,,---,0.00,VWS V14.00,2013-04-01 09:55:00,
2013-04-01 05:56:00,30.0,15.0,29.77,West,274,8.0,21.0,53,0.00,,---,0.00,VWS V14.00,2013-04-01 09:56:00,
2013-04-01 05:57:00,29.8,14.8,29.77,WNW,298,11.0,21.0,53,0.00,,---,0.00,VWS V14.00,2013-04-01 09:57:00,
2013-04-01 05:58:00,29.8,14.8,29.77,North,0,4.0,21.0,53,0.00,,---,0.00,VWS V14.00,2013-04-01 09:58:00,
2013-04-01 06:00:00,29.8,14.8,29.77,WNW,298,6.0,21.0,53,0.00,,---,0.00,VWS V14.00,2013-04-01 10:00:00,
2013-04-01 06:01:00,29.8,14.8,29.78,NW,304,4.0,21.0,53,0.00,,---,0.00,VWS V14.00,2013-04-01 10:01:00,
2013-04-01 06:02:00,29.7,14.7,29.78,NNW,342,11.0,11.0,53,0.00,,---,0.00,VWS V14.00,2013-04-01 10:02:00,
2013-04-01 06:03:00,29.7,14.7,29.78,NW,305,6.0,15.0,53,0.00,,---,0.00,VWS V14.00,2013-04-01 10:03:00,
2013-04-01 06:05:00,29.7,14.7,29.78,NW,305,7.0,15.0,53,0.00,,---,0.00,VWS V14.00,2013-04-01 10:05:00,
2013-04-01 06:06:00,29.7,14.7,29.78,NNW,330,10.0,15.0,53,0.00,,---,0.00,VWS V14.00,2013-04-01 10:06:00,
2013-04-01 06:07:00,29.5,14.5,29.78,NW,311,6.0,15.0,53,0.00,,---,0.00,VWS V14.00,2013-04-01 10:07:00,
2013-04-01 06:09:00,29.5,14.5,29.78,NW,305,10.0,15.0,53,0.00,,---,0.00,VWS V14.00,2013-04-01 10:09:00,
2013-04-01 06:10:00,29.5,14.5,29.78,WNW,287,9.0,15.0,53,0.00,,---,0.00,VWS V14.00,2013-04-01 10:10:00,
2013-04-01 06:11:00,29.4,14.8,29.78,NW,312,9.0,15.0,54,0.00,,---,0.00,VWS V14.00,2013-04-01 10:11:00,
2013-04-01 06:12:00,29.4,14.8,29.78,NW,323,10.0,15.0,54,0.00,,---,0.00,VWS V14.00,2013-04-01 10:12:00,
2013-04-01 06:14:00,29.4,14.8,29.78,WNW,298,9.0,15.0,54,0.00,,---,0.00,VWS V14.00,2013-04-01 10:14:00,
2013-04-01 06:15:00,29.4,14.8,29.78,NW,308,7.0,15.0,54,0.00,,---,0.00,VWS V14.00,2013-04-01 10:15:00,
2013-04-01 06:16:00,29.4,14.8,29.79,NNW,330,2.0,15.0,54,0.00,,---,0.00,VWS V14.00,2013-04-01 10:16:00,
2013-04-01 06:17:00,29.3,14.7,29.79,WNW,289,14.0,15.0,54,0.00,,---,0.00,VWS V14.00,2013-04-01 10:17:00,
2013-04-01 06:20:00,29.3,14.7,29.79,WNW,288,7.0,18.0,54,0.00,,---,0.00,VWS V14.00,2013-04-01 10:20:00,
2013-04-01 06:22:00,29.1,14.5,29.79,NNW,332,8.0,18.0,54,0.00,,---,0.00,VWS V14.00,2013-04-01 10:22:00,
2013-04-01 06:23:00,29.1,14.5,29.79,WNW,289,13.0,18.0,54,0.00,,---,0.00,VWS V14.00,2013-04-01 10:23:00,
2013-04-01 06:25:00,29.1,14.5,29.79,NW,325,11.0,18.0,54,0.00,,---,0.00,VWS V14.00,2013-04-01 10:25:00,
2013-04-01 06:27:00,29.1,15.0,29.79,NNW,330,9.0,18.0,55,0.00,,---,0.00,VWS V14.00,2013-04-01 10:27:00,
2013-04-01 06:28:00,29.1,15.0,29.79,NW,313,4.0,18.0,55,0.00,,---,0.00,VWS V14.00,2013-04-01 10:28:00,
2013-04-01 06:30:00,29.0,14.9,29.79,NW,325,4.0,18.0,55,0.00,,---,0.00,VWS V14.00,2013-04-01 10:30:00,
2013-04-01 06:31:00,29.0,14.9,29.80,WNW,285,11.0,18.0,55,0.00,,---,0.00,VWS V14.00,2013-04-01 10:31:00,
2013-04-01 06:32:00,29.0,14.9,29.80,WNW,295,10.0,18.0,55,0.00,,---,0.00,VWS V14.00,2013-04-01 10:32:00,
2013-04-01 06:33:00,29.0,14.9,29.80,NNW,343,9.0,18.0,55,0.00,,---,0.00,VWS V14.00,2013-04-01 10:33:00,
2013-04-01 06:35:00,29.0,14.9,29.80,WNW,301,7.0,18.0,55,0.00,,---,0.00,VWS V14.00,2013-04-01 10:35:00,
2013-04-01 06:36:00,28.8,14.7,29.80,NW,316,7.0,18.0,55,0.00,,---,0.00,VWS V14.00,2013-04-01 10:36:00,
2013-04-01 06:37:00,28.8,14.7,29.80,WNW,289,9.0,18.0,55,0.00,,---,0.00,VWS V14.00,2013-04-01 10:37:00,
2013-04-01 06:38:00,28.8,14.7,29.80,WNW,292,4.0,18.0,55,0.00,,---,0.00,VWS V14.00,2013-04-01 10:38:00,
2013-04-01 06:40:00,28.8,15.1,29.80,WNW,292,7.0,18.0,56,0.00,,---,0.00,VWS V14.00,2013-04-01 10:40:00,
2013-04-01 06:42:00,28.7,15.0,29.80,NW,308,8.0,18.0,56,0.00,,---,0.00,VWS V14.00,2013-04-01 10:42:00,
2013-04-01 06:43:00,28.7,15.0,29.80,NW,322,4.0,18.0,56,0.00,,---,0.00,VWS V14.00,2013-04-01 10:43:00,
2013-04-01 06:45:00,28.7,15.0,29.80,NW,306,2.0,18.0,56,0.00,,---,0.00,VWS V14.00,2013-04-01 10:45:00,
2013-04-01 06:47:00,28.7,15.0,29.80,WSW,253,7.0,18.0,56,0.00,,---,0.00,VWS V14.00,2013-04-01 10:47:00,
2013-04-01 06:48:00,28.5,15.2,29.80,WNW,294,11.0,18.0,57,0.00,,---,0.00,VWS V14.00,2013-04-01 10:48:00,
2013-04-01 06:50:00,28.5,15.2,29.80,NW,315,10.0,18.0,57,0.00,,---,0.00,VWS V14.00,2013-04-01 10:50:00,
2013-04-01 06:52:00,28.5,15.2,29.80,WNW,294,6.0,18.0,57,0.00,,---,0.00,VWS V14.00,2013-04-01 10:52:00,
2013-04-01 06:53:00,28.4,15.1,29.80,WNW,288,8.0,18.0,57,0.00,,---,0.00,VWS V14.00,2013-04-01 10:53:00,
2013-04-01 06:55:00,28.4,15.1,29.80,WNW,302,10.0,21.0,57,0.00,,---,0.00,VWS V14.00,2013-04-01 10:55:00,
2013-04-01 06:57:00,28.4,15.1,29.80,WNW,298,7.0,21.0,57,0.00,,---,0.00,VWS V14.00,2013-04-01 10:57:00,
2013-04-01 06:58:00,28.4,15.1,29.80,WNW,289,10.0,21.0,57,0.00,,---,0.00,VWS V14.00,2013-04-01 10:58:00,
2013-04-01 07:00:00,28.4,15.1,29.80,NW,305,9.0,21.0,57,0.00,,---,0.00,VWS V14.00,2013-04-01 11:00:00,
2013-04-01 07:02:00,28.2,14.9,29.81,NW,313,4.0,16.0,57,0.00,,---,0.00,VWS V14.00,2013-04-01 11:02:00,
2013-04-01 07:03:00,28.2,14.9,29.81,NNW,330,8.0,16.0,57,0.00,,---,0.00,VWS V14.00,2013-04-01 11:03:00,
2013-04-01 07:04:00,28.2,14.9,29.81,WNW,294,8.0,16.0,57,0.00,,---,0.00,VWS V14.00,2013-04-01 11:04:00,
2013-04-01 07:05:00,28.2,14.9,29.81,WNW,288,9.0,16.0,57,0.00,,---,0.00,VWS V14.00,2013-04-01 11:05:00,
2013-04-01 07:07:00,28.2,14.9,29.81,WNW,291,8.0,16.0,57,0.00,,---,0.00,VWS V14.00,2013-04-01 11:07:00,
2013-04-01 07:08:00,28.2,14.9,29.81,NW,306,4.0,16.0,57,0.00,,---,0.00,VWS V14.00,2013-04-01 11:08:00,
2013-04-01 07:09:00,28.2,14.9,29.81,NW,305,6.0,16.0,57,0.00,,---,0.00,VWS V14.00,2013-04-01 11:09:00,
2013-04-01 07:10:00,28.2,14.9,29.81,NW,312,4.0,16.0,57,0.00,,---,0.00,VWS V14.00,2013-04-01 11:10:00,
2013-04-01 07:12:00,28.2,15.3,29.81,NW,304,8.0,16.0,58,0.00,,---,0.00,VWS V14.00,2013-04-01 11:12:00,
2013-04-01 07:13:00,28.2,15.3,29.81,WNW,294,16.0,17.0,58,0.00,,---,0.00,VWS V14.00,2013-04-01 11:13:00,
2013-04-01 07:14:00,28.2,15.3,29.81,NW,306,8.0,17.0,58,0.00,,---,0.00,VWS V14.00,2013-04-01 11:14:00,
2013-04-01 07:15:00,28.2,15.3,29.81,WNW,295,4.0,17.0,58,0.00,,---,0.00,VWS V14.00,2013-04-01 11:15:00,
2013-04-01 07:17:00,28.1,15.2,29.82,NW,311,6.0,17.0,58,0.00,,---,0.00,VWS V14.00,2013-04-01 11:17:00,
2013-04-01 07:18:00,28.1,15.2,29.82,North,349,7.0,17.0,58,0.00,,---,0.00,VWS V14.00,2013-04-01 11:18:00,
2013-04-01 07:20:00,28.1,15.2,29.82,West,277,6.0,17.0,58,0.00,,---,0.00,VWS V14.00,2013-04-01 11:20:00,
2013-04-01 07:23:00,28.1,15.2,29.82,West,278,14.0,17.0,58,0.00,,---,0.00,VWS V14.00,2013-04-01 11:23:00,
2013-04-01 07:25:00,28.1,15.2,29.82,WNW,289,7.0,17.0,58,0.00,,---,0.00,VWS V14.00,2013-04-01 11:25:00,
2013-04-01 07:28:00,28.1,15.2,29.82,West,277,8.0,17.0,58,0.00,,---,0.00,VWS V14.00,2013-04-01 11:28:00,
2013-04-01 07:30:00,27.9,15.4,29.82,West,277,8.0,17.0,59,0.00,,---,0.00,VWS V14.00,2013-04-01 11:30:00,
2013-04-01 07:33:00,27.9,15.4,29.83,WNW,294,9.0,17.0,59,0.00,,---,0.00,VWS V14.00,2013-04-01 11:33:00,
2013-04-01 07:35:00,27.9,15.4,29.83,West,274,10.0,17.0,59,0.00,,---,0.00,VWS V14.00,2013-04-01 11:35:00,
2013-04-01 07:38:00,27.9,15.4,29.83,West,277,9.0,17.0,59,0.00,,---,0.00,VWS V14.00,2013-04-01 11:38:00,
2013-04-01 07:40:00,27.9,15.4,29.83,WNW,284,10.0,17.0,59,0.00,,---,0.00,VWS V14.00,2013-04-01 11:40:00,
2013-04-01 07:41:00,27.9,15.4,29.83,West,275,9.0,17.0,59,0.00,,---,0.00,VWS V14.00,2013-04-01 11:41:00,
2013-04-01 07:43:00,27.9,15.4,29.83,WNW,294,8.0,17.0,59,0.00,,---,0.00,VWS V14.00,2013-04-01 11:43:00,
2013-04-01 07:45:00,27.9,15.4,29.83,WNW,301,11.0,17.0,59,0.00,,---,0.00,VWS V14.00,2013-04-01 11:45:00,
2013-04-01 07:46:00,27.9,15.4,29.83,WNW,298,10.0,17.0,59,0.00,,---,0.00,VWS V14.00,2013-04-01 11:46:00,
2013-04-01 07:48:00,27.9,15.4,29.83,WNW,289,9.0,17.0,59,0.00,,---,0.00,VWS V14.00,2013-04-01 11:48:00,
2013-04-01 07:49:00,27.9,15.4,29.83,WNW,289,7.0,17.0,59,0.00,,---,0.00,VWS V14.00,2013-04-01 11:49:00,
2013-04-01 07:51:00,27.8,15.7,29.83,West,271,13.0,17.0,60,0.00,,---,0.00,VWS V14.00,2013-04-01 11:51:00,
2013-04-01 07:53:00,27.9,15.8,29.83,WNW,298,11.0,17.0,60,0.00,,---,0.00,VWS V14.00,2013-04-01 11:53:00,
2013-04-01 07:54:00,27.9,15.8,29.83,NW,304,14.0,17.0,60,0.00,,---,0.00,VWS V14.00,2013-04-01 11:54:00,
2013-04-01 07:56:00,27.9,15.8,29.83,WNW,285,4.0,17.0,60,0.00,,---,0.00,VWS V14.00,2013-04-01 11:56:00,
2013-04-01 07:58:00,27.9,15.8,29.83,WNW,282,6.0,17.0,60,0.00,,---,0.00,VWS V14.00,2013-04-01 11:58:00,
2013-04-01 07:59:00,27.9,15.8,29.83,West,281,15.0,17.0,60,0.00,,---,0.00,VWS V14.00,2013-04-01 11:59:00,
2013-04-01 08:01:00,27.9,15.8,29.84,West,278,9.0,17.0,60,0.00,,---,0.00,VWS V14.00,2013-04-01 12:01:00,
2013-04-01 08:03:00,27.9,15.8,29.84,WNW,287,9.0,15.0,60,0.00,,---,0.00,VWS V14.00,2013-04-01 12:03:00,
2013-04-01 08:04:00,27.9,15.8,29.84,NW,316,8.0,15.0,60,0.00,,---,0.00,VWS V14.00,2013-04-01 12:04:00,
2013-04-01 08:06:00,27.9,15.4,29.84,WNW,289,7.0,15.0,59,0.00,,---,0.00,VWS V14.00,2013-04-01 12:06:00,
2013-04-01 08:07:00,27.9,15.4,29.84,WNW,302,9.0,15.0,59,0.00,,---,0.00,VWS V14.00,2013-04-01 12:07:00,
2013-04-01 08:08:00,27.9,15.4,29.84,NNW,339,13.0,15.0,59,0.00,,---,0.00,VWS V14.00,2013-04-01 12:08:00,
2013-04-01 08:09:00,27.9,15.4,29.84,NW,316,8.0,15.0,59,0.00,,---,0.00,VWS V14.00,2013-04-01 12:09:00,
2013-04-01 08:12:00,28.1,15.6,29.84,NNW,330,9.0,15.0,59,0.00,,---,0.00,VWS V14.00,2013-04-01 12:12:00,
2013-04-01 08:13:00,28.1,15.6,29.84,WNW,299,10.0,15.0,59,0.00,,---,0.00,VWS V14.00,2013-04-01 12:13:00,
2013-04-01 08:14:00,28.1,15.6,29.84,NW,308,13.0,16.0,59,0.00,,---,0.00,VWS V14.00,2013-04-01 12:14:00,
2013-04-01 08:17:00,28.1,15.2,29.85,WNW,302,18.0,18.0,58,0.00,,---,0.00,VWS V14.00,2013-04-01 12:17:00,
2013-04-01 08:18:00,28.2,15.3,29.85,WNW,289,13.0,18.0,58,0.00,,---,0.00,VWS V14.00,2013-04-01 12:18:00,
2013-04-01 08:19:00,28.2,15.3,29.85,WNW,301,8.0,18.0,58,0.00,,---,0.00,VWS V14.00,2013-04-01 12:19:00,
2013-04-01 08:22:00,28.2,14.9,29.85,NNW,336,17.0,18.0,57,0.00,,---,0.00,VWS V14.00,2013-04-01 12:22:00,
2013-04-01 08:23:00,28.2,14.5,29.85,West,278,15.0,22.0,56,0.00,,---,0.00,VWS V14.00,2013-04-01 12:23:00,
2013-04-01 08:24:00,28.4,14.3,29.85,WNW,282,13.0,22.0,55,0.00,,---,0.00,VWS V14.00,2013-04-01 12:24:00,
2013-04-01 08:25:00,28.4,14.3,29.85,WNW,282,13.0,22.0,55,0.00,,---,0.00,VWS V14.00,2013-04-01 12:25:00,
2013-04-01 08:27:00,28.4,14.3,29.85,WNW,291,9.0,22.0,55,0.00,,---,0.00,VWS V14.00,2013-04-01 12:27:00,
2013-04-01 08:28:00,28.5,14.4,29.85,WNW,296,20.0,23.0,55,0.00,,---,0.00,VWS V14.00,2013-04-01 12:28:00,
2013-04-01 08:29:00,28.5,14.0,29.85,NW,316,14.0,23.0,54,0.00,,---,0.00,VWS V14.00,2013-04-01 12:29:00,
2013-04-01 08:30:00,28.5,14.0,29.85,West,264,14.0,23.0,54,0.00,,---,0.00,VWS V14.00,2013-04-01 12:30:00,
2013-04-01 08:32:00,28.7,14.2,29.85,West,274,9.0,23.0,54,0.00,,---,0.00,VWS V14.00,2013-04-01 12:32:00,
2013-04-01 08:33:00,28.7,14.6,29.85,NW,305,9.0,23.0,55,0.00,,---,0.00,VWS V14.00,2013-04-01 12:33:00,
2013-04-01 08:35:00,28.7,14.2,29.85,NW,325,9.0,23.0,54,0.00,,---,0.00,VWS V14.00,2013-04-01 12:35:00,
2013-04-01 08:37:00,28.7,13.8,29.85,NW,325,22.0,23.0,53,0.00,,---,0.00,VWS V14.00,2013-04-01 12:37:00,
2013-04-01 08:38:00,28.8,13.8,29.85,NW,316,10.0,23.0,53,0.00,,---,0.00,VWS V14.00,2013-04-01 12:38:00,
2013-04-01 08:40:00,28.8,13.4,29.85,WNW,284,16.0,23.0,52,0.00,,---,0.00,VWS V14.00,2013-04-01 12:40:00,
2013-04-01 08:42:00,28.8,13.4,29.85,West,271,11.0,23.0,52,0.00,,---,0.00,VWS V14.00,2013-04-01 12:42:00,
2013-04-01 08:43:00,29.0,13.6,29.85,NW,313,18.0,23.0,52,0.00,,---,0.00,VWS V14.00,2013-04-01 12:43:00,
2013-04-01 08:45:00,29.0,13.6,29.85,WNW,289,16.0,24.0,52,0.00,,---,0.00,VWS V14.00,2013-04-01 12:45:00,
2013-04-01 08:47:00,29.0,13.6,29.86,WNW,296,9.0,24.0,52,0.00,,---,0.00,VWS V14.00,2013-04-01 12:47:00,
2013-04-01 08:48:00,29.1,13.7,29.86,WNW,299,21.0,24.0,52,0.00,,---,0.00,VWS V14.00,2013-04-01 12:48:00,
2013-04-01 08:50:00,29.1,13.2,29.86,West,274,25.0,25.0,51,0.00,,---,0.00,VWS V14.00,2013-04-01 12:50:00,
2013-04-01 08:52:00,29.1,13.2,29.86,WNW,289,17.0,26.0,51,0.00,,---,0.00,VWS V14.00,2013-04-01 12:52:00,
2013-04-01 08:53:00,29.1,13.2,29.86,WNW,291,18.0,26.0,51,0.00,,---,0.00,VWS V14.00,2013-04-01 12:53:00,
2013-04-01 08:55:00,29.1,13.7,29.86,WNW,299,16.0,26.0,52,0.00,,---,0.00,VWS V14.00,2013-04-01 12:55:00,
2013-04-01 08:57:00,29.3,13.9,29.86,WNW,288,9.0,26.0,52,0.00,,---,0.00,VWS V14.00,2013-04-01 12:57:00,
2013-04-01 08:58:00,29.3,13.9,29.86,SW,220,14.0,26.0,52,0.00,,---,0.00,VWS V14.00,2013-04-01 12:58:00,
2013-04-01 09:00:00,29.3,13.9,29.86,West,274,15.0,26.0,52,0.00,,---,0.00,VWS V14.00,2013-04-01 13:00:00,
2013-04-01 09:02:00,29.4,13.5,29.87,NW,318,13.0,21.0,51,0.00,,---,0.00,VWS V14.00,2013-04-01 13:02:00,
2013-04-01 09:03:00,29.4,13.5,29.87,NNW,339,15.0,21.0,51,0.00,,---,0.00,VWS V14.00,2013-04-01 13:03:00,
2013-04-01 09:05:00,29.4,13.5,29.87,WNW,282,11.0,21.0,51,0.00,,---,0.00,VWS V14.00,2013-04-01 13:05:00,
2013-04-01 09:07:00,29.5,13.6,29.87,WNW,294,16.0,22.0,51,0.00,,---,0.00,VWS V14.00,2013-04-01 13:07:00,
2013-04-01 09:09:00,29.5,13.6,29.87,NNW,333,11.0,22.0,51,0.00,,---,0.00,VWS V14.00,2013-04-01 13:09:00,
2013-04-01 09:10:00,29.5,13.6,29.87,WNW,294,13.0,22.0,51,0.00,,---,0.00,VWS V14.00,2013-04-01 13:10:00,
2013-04-01 09:13:00,29.7,13.8,29.87,NNW,332,6.0,22.0,51,0.00,,---,0.00,VWS V14.00,2013-04-01 13:13:00,
2013-04-01 09:14:00,29.7,13.8,29.87,WNW,302,9.0,22.0,51,0.00,,---,0.00,VWS V14.00,2013-04-01 13:14:00,
2013-04-01 09:15:00,29.8,13.9,29.87,NW,320,13.0,22.0,51,0.00,,---,0.00,VWS V14.00,2013-04-01 13:15:00,
2013-04-01 09:16:00,29.8,13.9,29.87,NNW,343,8.0,22.0,51,0.00,,---,0.00,VWS V14.00,2013-04-01 13:16:00,
2013-04-01 09:18:00,29.8,13.9,29.87,WNW,284,14.0,22.0,51,0.00,,---,0.00,VWS V14.00,2013-04-01 13:18:00,
2013-04-01 09:19:00,30.0,14.1,29.87,West,277,15.0,22.0,51,0.00,,---,0.00,VWS V14.00,2013-04-01 13:19:00,
2013-04-01 09:20:00,30.0,14.1,29.87,WNW,285,16.0,22.0,51,0.00,,---,0.00,VWS V14.00,2013-04-01 13:20:00,
2013-04-01 09:21:00,30.0,14.1,29.87,NW,309,13.0,22.0,51,0.00,,---,0.00,VWS V14.00,2013-04-01 13:21:00,
2013-04-01 09:23:00,30.0,14.1,29.87,West,275,21.0,23.0,51,0.00,,---,0.00,VWS V14.00,2013-04-01 13:23:00,
2013-04-01 09:24:00,30.0,14.5,29.87,WNW,294,17.0,23.0,52,0.00,,---,0.00,VWS V14.00,2013-04-01 13:24:00,
2013-04-01 09:26:00,30.0,14.1,29.87,NW,318,13.0,23.0,51,0.00,,---,0.00,VWS V14.00,2013-04-01 13:26:00,
2013-04-01 09:28:00,30.0,14.1,29.87,NW,323,14.0,23.0,51,0.00,,---,0.00,VWS V14.00,2013-04-01 13:28:00,
2013-04-01 09:29:00,30.0,14.1,29.87,NNW,329,10.0,23.0,51,0.00,,---,0.00,VWS V14.00,2013-04-01 13:29:00,
2013-04-01 09:31:00,30.1,14.2,29.88,WNW,301,11.0,23.0,51,0.00,,---,0.00,VWS V14.00,2013-04-01 13:31:00,
2013-04-01 09:32:00,30.1,14.2,29.88,West,278,11.0,23.0,51,0.00,,---,0.00,VWS V14.00,2013-04-01 13:32:00,
2013-04-01 09:33:00,30.1,14.2,29.88,WNW,294,15.0,23.0,51,0.00,,---,0.00,VWS V14.00,2013-04-01 13:33:00,
2013-04-01 09:34:00,30.1,14.6,29.88,NW,309,6.0,23.0,52,0.00,,---,0.00,VWS V14.00,2013-04-01 13:34:00,
2013-04-01 09:36:00,30.3,14.4,29.88,WNW,301,9.0,23.0,51,0.00,,---,0.00,VWS V14.00,2013-04-01 13:36:00,
2013-04-01 09:37:00,30.3,14.4,29.88,WNW,301,9.0,23.0,51,0.00,,---,0.00,VWS V14.00,2013-04-01 13:37:00,
2013-04-01 09:38:00,30.3,14.8,29.88,NW,320,10.0,23.0,52,0.00,,---,0.00,VWS V14.00,2013-04-01 13:38:00,
2013-04-01 09:40:00,30.3,14.8,29.88,NW,311,8.0,23.0,52,0.00,,---,0.00,VWS V14.00,2013-04-01 13:40:00,
2013-04-01 09:41:00,30.4,14.9,29.88,WNW,296,9.0,23.0,52,0.00,,---,0.00,VWS V14.00,2013-04-01 13:41:00,
2013-04-01 09:42:00,30.4,14.9,29.88,West,277,15.0,23.0,52,0.00,,---,0.00,VWS V14.00,2013-04-01 13:42:00,
2013-04-01 09:43:00,30.4,14.9,29.88,West,270,14.0,23.0,52,0.00,,---,0.00,VWS V14.00,2013-04-01 13:43:00,
2013-04-01 09:45:00,30.4,14.9,29.88,WNW,285,8.0,23.0,52,0.00,,---,0.00,VWS V14.00,2013-04-01 13:45:00,
2013-04-01 09:46:00,30.4,14.9,29.88,WNW,285,9.0,23.0,52,0.00,,---,0.00,VWS V14.00,2013-04-01 13:46:00,
2013-04-01 09:47:00,30.4,14.9,29.88,WNW,292,13.0,23.0,52,0.00,,---,0.00,VWS V14.00,2013-04-01 13:47:00,
2013-04-01 09:48:00,30.4,14.9,29.88,WNW,296,11.0,23.0,52,0.00,,---,0.00,VWS V14.00,2013-04-01 13:48:00,
2013-04-01 09:50:00,30.6,15.5,29.88,West,268,13.0,23.0,53,0.00,,---,0.00,VWS V14.00,2013-04-01 13:50:00,
2013-04-01 09:51:00,30.6,15.5,29.88,West,281,13.0,23.0,53,0.00,,---,0.00,VWS V14.00,2013-04-01 13:51:00,
2013-04-01 09:52:00,30.7,15.6,29.88,WNW,292,15.0,23.0,53,0.00,,---,0.00,VWS V14.00,2013-04-01 13:52:00,
2013-04-01 09:53:00,30.7,15.2,29.88,WNW,282,14.0,23.0,52,0.00,,---,0.00,VWS V14.00,2013-04-01 13:53:00,
2013-04-01 09:55:00,30.7,15.2,29.88,SW,222,13.0,23.0,52,0.00,,---,0.00,VWS V14.00,2013-04-01 13:55:00,
2013-04-01 09:56:00,30.7,15.2,29.88,West,277,7.0,23.0,52,0.00,,---,0.00,VWS V14.00,2013-04-01 13:56:00,
2013-04-01 09:57:00,30.7,15.6,29.88,West,280,10.0,23.0,53,0.00,,---,0.00,VWS V14.00,2013-04-01 13:57:00,
2013-04-01 09:58:00,30.7,15.6,29.88,NNW,330,10.0,23.0,53,0.00,,---,0.00,VWS V14.00,2013-04-01 13:58:00,
2013-04-01 10:00:00,30.7,15.2,29.88,NW,304,16.0,23.0,52,0.00,,---,0.00,VWS V14.00,2013-04-01 14:00:00,
2013-04-01 10:01:00,30.6,15.1,29.89,NW,306,13.0,23.0,52,0.00,,---,0.00,VWS V14.00,2013-04-01 14:01:00,
2013-04-01 10:03:00,30.6,15.1,29.89,NW,315,14.0,15.0,52,0.00,,---,0.00,VWS V14.00,2013-04-01 14:03:00,
2013-04-01 10:05:00,30.7,14.7,29.89,North,0,6.0,15.0,51,0.00,,---,0.00,VWS V14.00,2013-04-01 14:05:00,
2013-04-01 10:07:00,30.7,15.2,29.89,NW,304,10.0,15.0,52,0.00,,---,0.00,VWS V14.00,2013-04-01 14:07:00,
2013-04-01 10:08:00,30.9,15.4,29.89,West,278,10.0,15.0,52,0.00,,---,0.00,VWS V14.00,2013-04-01 14:08:00,
2013-04-01 10:10:00,31.0,15.4,29.89,WNW,294,17.0,25.0,52,0.00,,---,0.00,VWS V14.00,2013-04-01 14:10:00,
2013-04-01 10:11:00,31.0,15.4,29.89,WNW,299,17.0,25.0,52,0.00,,---,0.00,VWS V14.00,2013-04-01 14:11:00,
2013-04-01 10:12:00,31.0,15.4,29.89,WNW,299,15.0,25.0,52,0.00,,---,0.00,VWS V14.00,2013-04-01 14:12:00,
2013-04-01 10:13:00,30.9,14.9,29.89,NW,325,11.0,25.0,51,0.00,,---,0.00,VWS V14.00,2013-04-01 14:13:00,
2013-04-01 10:15:00,30.9,14.9,29.89,WNW,288,11.0,25.0,51,0.00,,---,0.00,VWS V14.00,2013-04-01 14:15:00,
2013-04-01 10:16:00,30.7,14.3,29.89,NNE,20,4.0,25.0,50,0.00,,---,0.00,VWS V14.00,2013-04-01 14:16:00,
2013-04-01 10:17:00,30.7,14.3,29.89,NNE,23,6.0,25.0,50,0.00,,---,0.00,VWS V14.00,2013-04-01 14:17:00,
2013-04-01 10:18:00,30.9,14.5,29.89,NW,325,6.0,25.0,50,0.00,,---,0.00,VWS V14.00,2013-04-01 14:18:00,
2013-04-01 10:20:00,30.9,14.5,29.89,NW,308,11.0,25.0,50,0.00,,---,0.00,VWS V14.00,2013-04-01 14:20:00,
2013-04-01 10:21:00,31.0,14.6,29.89,WNW,298,10.0,25.0,50,0.00,,---,0.00,VWS V14.00,2013-04-01 14:21:00,
2013-04-01 10:22:00,31.0,15.0,29.89,WNW,298,8.0,25.0,51,0.00,,---,0.00,VWS V14.00,2013-04-01 14:22:00,
2013-04-01 10:23:00,31.2,15.2,29.89,NW,319,13.0,25.0,51,0.00,,---,0.00,VWS V14.00,2013-04-01 14:23:00,
2013-04-01 10:25:00,31.3,15.7,29.89,WNW,288,11.0,25.0,52,0.00,,---,0.00,VWS V14.00,2013-04-01 14:25:00,
2013-04-01 10:27:00,31.3,14.8,29.89,NW,316,16.0,25.0,50,0.00,,---,0.00,VWS V14.00,2013-04-01 14:27:00,
2013-04-01 10:28:00,31.5,14.6,29.89,WNW,284,16.0,25.0,49,0.00,,---,0.00,VWS V14.00,2013-04-01 14:28:00,
2013-04-01 10:30:00,31.6,15.1,29.89,NNW,329,8.0,25.0,50,0.00,,---,0.00,VWS V14.00,2013-04-01 14:30:00,
2013-04-01 10:32:00,31.8,14.8,29.90,WNW,288,9.0,25.0,49,0.00,,---,0.00,VWS V14.00,2013-04-01 14:32:00,
2013-04-01 10:33:00,31.8,15.3,29.90,NW,315,11.0,25.0,50,0.00,,---,0.00,VWS V14.00,2013-04-01 14:33:00,
2013-04-01 10:35:00,31.6,14.6,29.90,WNW,291,17.0,25.0,49,0.00,,---,0.00,VWS V14.00,2013-04-01 14:35:00,
2013-04-01 10:37:00,31.6,14.2,29.90,WNW,284,20.0,25.0,48,0.00,,---,0.00,VWS V14.00,2013-04-01 14:37:00,
2013-04-01 10:38:00,31.5,14.1,29.90,West,272,20.0,25.0,48,0.00,,---,0.00,VWS V14.00,2013-04-01 14:38:00,
2013-04-01 10:39:00,31.3,13.9,29.90,WNW,282,14.0,25.0,48,0.00,,---,0.00,VWS V14.00,2013-04-01 14:39:00,
2013-04-01 10:40:00,31.3,13.9,29.90,WNW,284,16.0,25.0,48,0.00,,---,0.00,VWS V14.00,2013-04-01 14:40:00,
2013-04-01 10:42:00,31.2,13.8,29.90,WNW,295,17.0,25.0,48,0.00,,---,0.00,VWS V14.00,2013-04-01 14:42:00,
2013-04-01 10:43:00,31.2,13.8,29.90,NW,309,9.0,25.0,48,0.00,,---,0.00,VWS V14.00,2013-04-01 14:43:00,
2013-04-01 10:44:00,31.2,14.3,29.90,West,281,15.0,25.0,49,0.00,,---,0.00,VWS V14.00,2013-04-01 14:44:00,
2013-04-01 10:45:00,31.2,13.8,29.90,NW,325,9.0,25.0,48,0.00,,---,0.00,VWS V14.00,2013-04-01 14:45:00,
2013-04-01 10:47:00,31.2,14.3,29.90,WNW,295,15.0,25.0,49,0.00,,---,0.00,VWS V14.00,2013-04-01 14:47:00,
2013-04-01 10:48:00,31.3,14.4,29.90,NW,315,7.0,25.0,49,0.00,,---,0.00,VWS V14.00,2013-04-01 14:48:00,
2013-04-01 10:49:00,31.3,14.4,29.90,NNW,329,6.0,25.0,49,0.00,,---,0.00,VWS V14.00,2013-04-01 14:49:00,
2013-04-01 10:50:00,31.3,13.9,29.90,NW,325,14.0,25.0,48,0.00,,---,0.00,VWS V14.00,2013-04-01 14:50:00,
2013-04-01 10:52:00,31.5,14.6,29.90,WNW,288,16.0,25.0,49,0.00,,---,0.00,VWS V14.00,2013-04-01 14:52:00,
2013-04-01 10:53:00,31.5,14.6,29.90,West,280,14.0,25.0,49,0.00,,---,0.00,VWS V14.00,2013-04-01 14:53:00,
2013-04-01 10:54:00,31.5,14.6,29.90,West,274,14.0,25.0,49,0.00,,---,0.00,VWS V14.00,2013-04-01 14:54:00,
2013-04-01 10:55:00,31.5,14.6,29.90,SSW,199,13.0,25.0,49,0.00,,---,0.00,VWS V14.00,2013-04-01 14:55:00,
2013-04-01 10:57:00,31.5,15.0,29.90,WNW,292,15.0,25.0,50,0.00,,---,0.00,VWS V14.00,2013-04-01 14:57:00,
2013-04-01 10:58:00,31.3,14.4,29.90,WNW,289,14.0,25.0,49,0.00,,---,0.00,VWS V14.00,2013-04-01 14:58:00,
2013-04-01 10:59:00,31.3,14.4,29.90,West,272,20.0,25.0,49,0.00,,---,0.00,VWS V14.00,2013-04-01 14:59:00,
2013-04-01 11:00:00,31.2,14.3,29.91,WNW,298,16.0,25.0,49,0.00,,---,0.00,VWS V14.00,2013-04-01 15:00:00,
2013-04-01 11:02:00,31.2,14.3,29.91,West,272,9.0,16.0,49,0.00,,---,0.00,VWS V14.00,2013-04-01 15:02:00,
2013-04-01 11:03:00,31.2,14.3,29.91,NW,318,14.0,23.0,49,0.00,,---,0.00,VWS V14.00,2013-04-01 15:03:00,
2013-04-01 11:04:00,31.2,14.3,29.91,West,277,9.0,23.0,49,0.00,,---,0.00,VWS V14.00,2013-04-01 15:04:00,
2013-04-01 11:05:00,31.3,14.4,29.91,NW,304,14.0,23.0,49,0.00,,---,0.00,VWS V14.00,2013-04-01 15:05:00,
2013-04-01 11:07:00,31.6,14.6,29.91,WNW,302,14.0,23.0,49,0.00,,---,0.00,VWS V14.00,2013-04-01 15:07:00,
2013-04-01 11:08:00,31.8,14.8,29.91,WNW,299,8.0,23.0,49,0.00,,---,0.00,VWS V14.00,2013-04-01 15:08:00,
2013-04-01 11:09:00,31.8,14.4,29.91,NW,316,9.0,23.0,48,0.00,,---,0.00,VWS V14.00,2013-04-01 15:09:00,
2013-04-01 11:11:00,31.9,14.0,29.91,WNW,299,9.0,23.0,47,0.00,,---,0.00,VWS V14.00,2013-04-01 15:11:00,
2013-04-01 11:12:00,32.1,14.6,29.91,NW,323,10.0,23.0,48,0.00,,---,0.00,VWS V14.00,2013-04-01 15:12:00,
2013-04-01 11:13:00,32.2,14.7,29.91,NW,319,13.0,23.0,48,0.00,,---,0.00,VWS V14.00,2013-04-01 15:13:00,
2013-04-01 11:14:00,32.2,14.7,29.91,WNW,288,11.0,23.0,48,0.00,,---,0.00,VWS V14.00,2013-04-01 15:14:00,
2013-04-01 11:16:00,32.4,13.9,29.91,NNW,344,2.0,23.0,46,0.00,,---,0.00,VWS V14.00,2013-04-01 15:16:00,
2013-04-01 11:18:00,32.5,15.0,29.91,SW,219,9.0,23.0,48,0.00,,---,0.00,VWS V14.00,2013-04-01 15:18:00,
2013-04-01 11:19:00,32.7,14.7,29.91,North,356,9.0,23.0,47,0.00,,---,0.00,VWS V14.00,2013-04-01 15:19:00,
2013-04-01 11:21:00,32.7,14.2,29.91,West,275,15.0,23.0,46,0.00,,---,0.00,VWS V14.00,2013-04-01 15:21:00,
2013-04-01 11:23:00,32.7,14.2,29.91,West,272,14.0,23.0,46,0.00,,---,0.00,VWS V14.00,2013-04-01 15:23:00,
2013-04-01 11:24:00,32.7,14.2,29.91,WNW,295,18.0,23.0,46,0.00,,---,0.00,VWS V14.00,2013-04-01 15:24:00,
2013-04-01 11:27:00,32.7,14.2,29.91,WNW,287,11.0,23.0,46,0.00,,---,0.00,VWS V14.00,2013-04-01 15:27:00,
2013-04-01 11:28:00,32.7,14.2,29.91,WNW,301,7.0,23.0,46,0.00,,---,0.00,VWS V14.00,2013-04-01 15:28:00,
2013-04-01 11:29:00,32.8,14.3,29.91,West,274,9.0,23.0,46,0.00,,---,0.00,VWS V14.00,2013-04-01 15:29:00,
2013-04-01 11:32:00,32.9,15.4,29.91,NW,318,6.0,23.0,48,0.00,,---,0.00,VWS V14.00,2013-04-01 15:32:00,
2013-04-01 11:33:00,33.1,15.6,29.91,NW,326,10.0,23.0,48,0.00,,---,0.00,VWS V14.00,2013-04-01 15:33:00,
2013-04-01 11:34:00,33.1,15.1,29.91,NNW,333,16.0,23.0,47,0.00,,---,0.00,VWS V14.00,2013-04-01 15:34:00,
2013-04-01 11:37:00,33.1,14.1,29.91,WNW,291,13.0,23.0,45,0.00,,---,0.00,VWS V14.00,2013-04-01 15:37:00,
2013-04-01 11:38:00,33.1,14.1,29.91,WNW,295,16.0,23.0,45,0.00,,---,0.00,VWS V14.00,2013-04-01 15:38:00,
2013-04-01 11:39:00,33.2,14.7,29.91,West,275,7.0,23.0,46,0.00,,---,0.00,VWS V14.00,2013-04-01 15:39:00,
2013-04-01 11:43:00,33.2,14.2,29.91,WNW,299,16.0,23.0,45,0.00,,---,0.00,VWS V14.00,2013-04-01 15:43:00,
2013-04-01 11:44:00,33.1,14.1,29.91,WNW,302,11.0,23.0,45,0.00,,---,0.00,VWS V14.00,2013-04-01 15:44:00,
2013-04-01 11:45:00,33.1,14.6,29.91,West,278,9.0,23.0,46,0.00,,---,0.00,VWS V14.00,2013-04-01 15:45:00,
2013-04-01 11:48:00,33.4,14.9,29.92,WNW,291,7.0,23.0,46,0.00,,---,0.00,VWS V14.00,2013-04-01 15:48:00,
2013-04-01 11:50:00,33.5,13.9,29.92,NW,319,7.0,23.0,44,0.00,,---,0.00,VWS V14.00,2013-04-01 15:50:00,
2013-04-01 11:53:00,33.7,13.6,29.92,NW,305,22.0,23.0,43,0.00,,---,0.00,VWS V14.00,2013-04-01 15:53:00,
2013-04-01 11:55:00,33.7,13.1,29.92,NW,305,15.0,24.0,42,0.00,,---,0.00,VWS V14.00,2013-04-01 15:55:00,
2013-04-01 11:58:00,34.0,14.9,29.92,SW,226,14.0,24.0,45,0.00,,---,0.00,VWS V14.00,2013-04-01 15:58:00,
2013-04-01 12:00:00,33.8,13.7,29.92,WNW,289,4.0,24.0,43,0.00,,---,0.00,VWS V14.00,2013-04-01 16:00:00,
2013-04-01 12:03:00,33.8,13.7,29.92,SW,227,14.0,17.0,43,0.00,,---,0.00,VWS V14.00,2013-04-01 16:03:00,
2013-04-01 12:05:00,33.7,13.6,29.92,WNW,289,17.0,21.0,43,0.00,,---,0.00,VWS V14.00,2013-04-01 16:05:00,
2013-04-01 12:06:00,33.7,13.6,29.92,WSW,237,11.0,21.0,43,0.00,,---,0.00,VWS V14.00,2013-04-01 16:06:00,
2013-04-01 12:08:00,33.7,13.6,29.92,West,270,11.0,21.0,43,0.00,,---,0.00,VWS V14.00,2013-04-01 16:08:00,
2013-04-01 12:10:00,33.8,13.1,29.92,West,267,15.0,21.0,42,0.00,,---,0.00,VWS V14.00,2013-04-01 16:10:00,
2013-04-01 12:11:00,33.8,12.6,29.92,West,274,24.0,24.0,41,0.00,,---,0.00,VWS V14.00,2013-04-01 16:11:00,
2013-04-01 12:13:00,33.8,12.6,29.92,WNW,301,13.0,32.0,41,0.00,,---,0.00,VWS V14.00,2013-04-01 16:13:00,
2013-04-01 12:14:00,34.0,12.8,29.92,West,277,13.0,32.0,41,0.00,,---,0.00,VWS V14.00,2013-04-01 16:14:00,
2013-04-01 12:15:00,34.1,13.4,29.92,West,268,17.0,32.0,42,0.00,,---,0.00,VWS V14.00,2013-04-01 16:15:00,
2013-04-01 12:16:00,34.1,12.3,29.92,WNW,282,25.0,32.0,40,0.00,,---,0.00,VWS V14.00,2013-04-01 16:16:00,
2013-04-01 12:18:00,34.3,12.5,29.92,WNW,299,21.0,32.0,40,0.00,,---,0.00,VWS V14.00,2013-04-01 16:18:00,
2013-04-01 12:19:00,34.4,12.6,29.92,WNW,288,11.0,32.0,40,0.00,,---,0.00,VWS V14.00,2013-04-01 16:19:00,
2013-04-01 12:20:00,34.4,13.7,29.92,NNW,339,16.0,32.0,42,0.00,,---,0.00,VWS V14.00,2013-04-01 16:20:00,
2013-04-01 12:22:00,34.6,13.3,29.92,WNW,291,13.0,32.0,41,0.00,,---,0.00,VWS V14.00,2013-04-01 16:22:00,
2013-04-01 12:23:00,34.7,14.5,29.92,WNW,291,17.0,32.0,43,0.00,,---,0.00,VWS V14.00,2013-04-01 16:23:00,
2013-04-01 12:24:00,34.9,14.7,29.92,WNW,284,10.0,32.0,43,0.00,,---,0.00,VWS V14.00,2013-04-01 16:24:00,
2013-04-01 12:25:00,34.9,14.1,29.92,WSW,237,23.0,32.0,42,0.00,,---,0.00,VWS V14.00,2013-04-01 16:25:00,
2013-04-01 12:27:00,34.7,13.4,29.92,West,268,18.0,32.0,41,0.00,,---,0.00,VWS V14.00,2013-04-01 16:27:00,
2013-04-01 12:29:00,34.4,13.7,29.92,West,265,11.0,32.0,42,0.00,,---,0.00,VWS V14.00,2013-04-01 16:29:00,
2013-04-01 12:30:00,34.3,13.6,29.93,WNW,289,14.0,32.0,42,0.00,,---,0.00,VWS V14.00,2013-04-01 16:30:00,
2013-04-01 12:32:00,34.3,13.6,29.93,SW,232,16.0,32.0,42,0.00,,---,0.00,VWS V14.00,2013-04-01 16:32:00,
2013-04-01 12:34:00,34.3,13.1,29.93,SW,217,25.0,32.0,41,0.00,,---,0.00,VWS V14.00,2013-04-01 16:34:00,
2013-04-01 12:35:00,34.3,13.1,29.93,WNW,289,16.0,32.0,41,0.00,,---,0.00,VWS V14.00,2013-04-01 16:35:00,
2013-04-01 12:37:00,34.4,13.7,29.93,SW,222,13.0,32.0,42,0.00,,---,0.00,VWS V14.00,2013-04-01 16:37:00,
2013-04-01 12:39:00,34.6,13.3,29.93,SW,219,16.0,32.0,41,0.00,,---,0.00,VWS V14.00,2013-04-01 16:39:00,
2013-04-01 12:41:00,34.7,13.4,29.93,WNW,294,14.0,32.0,41,0.00,,---,0.00,VWS V14.00,2013-04-01 16:41:00,
2013-04-01 12:42:00,34.9,13.6,29.93,West,272,21.0,32.0,41,0.00,,---,0.00,VWS V14.00,2013-04-01 16:42:00,
2013-04-01 12:44:00,35.0,12.6,29.93,WNW,291,14.0,32.0,39,0.00,,---,0.00,VWS V14.00,2013-04-01 16:44:00,
2013-04-01 12:47:00,35.3,14.0,29.93,WNW,295,17.0,32.0,41,0.00,,---,0.00,VWS V14.00,2013-04-01 16:47:00,
2013-04-01 12:49:00,35.6,14.2,29.93,West,272,9.0,32.0,41,0.00,,---,0.00,VWS V14.00,2013-04-01 16:49:00,
2013-04-01 12:52:00,35.6,13.1,29.93,WNW,288,10.0,32.0,39,0.00,,---,0.00,VWS V14.00,2013-04-01 16:52:00,
2013-04-01 12:53:00,35.8,13.9,29.93,WNW,287,11.0,32.0,40,0.00,,---,0.00,VWS V14.00,2013-04-01 16:53:00,
2013-04-01 12:54:00,35.8,13.9,29.93,NW,316,21.0,32.0,40,0.00,,---,0.00,VWS V14.00,2013-04-01 16:54:00,
2013-04-01 12:57:00,35.3,12.2,29.93,WNW,285,15.0,32.0,38,0.00,,---,0.00,VWS V14.00,2013-04-01 16:57:00,
2013-04-01 12:58:00,35.2,12.1,29.93,WNW,291,16.0,32.0,38,0.00,,---,0.00,VWS V14.00,2013-04-01 16:58:00,
2013-04-01 12:59:00,34.9,11.3,29.93,NW,311,15.0,32.0,37,0.00,,---,0.00,VWS V14.00,2013-04-01 16:59:00,
2013-04-01 13:00:00,34.9,11.9,29.93,West,281,9.0,32.0,38,0.00,,---,0.00,VWS V14.00,2013-04-01 17:00:00,
2013-04-01 13:02:00,35.0,13.7,29.93,SW,224,11.0,16.0,41,0.00,,---,0.00,VWS V14.00,2013-04-01 17:02:00,
2013-04-01 13:03:00,35.0,13.7,29.93,SW,222,15.0,16.0,41,0.00,,---,0.00,VWS V14.00,2013-04-01 17:03:00,
2013-04-01 13:04:00,35.0,13.7,29.93,SW,215,13.0,20.0,41,0.00,,---,0.00,VWS V14.00,2013-04-01 17:04:00,
2013-04-01 13:05:00,35.2,13.9,29.93,WNW,285,16.0,20.0,41,0.00,,---,0.00,VWS V14.00,2013-04-01 17:05:00,
2013-04-01 13:08:00,35.3,13.4,29.93,West,268,21.0,21.0,40,0.00,,---,0.00,VWS V14.00,2013-04-01 17:08:00,
2013-04-01 13:09:00,35.5,13.0,29.93,SSW,200,11.0,21.0,39,0.00,,---,0.00,VWS V14.00,2013-04-01 17:09:00,
2013-04-01 13:10:00,35.5,14.1,29.93,WNW,301,9.0,21.0,41,0.00,,---,0.00,VWS V14.00,2013-04-01 17:10:00,
2013-04-01 13:13:00,36.0,14.6,29.93,WNW,288,13.0,26.0,41,0.00,,---,0.00,VWS V14.00,2013-04-01 17:13:00,
2013-04-01 13:15:00,36.0,13.5,29.93,SW,216,8.0,26.0,39,0.00,,---,0.00,VWS V14.00,2013-04-01 17:15:00,
2013-04-01 13:18:00,35.9,12.8,29.93,WNW,296,20.0,26.0,38,0.00,,---,0.00,VWS V14.00,2013-04-01 17:18:00,
2013-04-01 13:20:00,35.8,14.4,29.93,WNW,301,23.0,26.0,41,0.00,,---,0.00,VWS V14.00,2013-04-01 17:20:00,
2013-04-01 13:21:00,35.8,13.9,29.93,WNW,292,11.0,26.0,40,0.00,,---,0.00,VWS V14.00,2013-04-01 17:21:00,
2013-04-01 13:23:00,35.5,12.4,29.93,SW,219,22.0,26.0,38,0.00,,---,0.00,VWS V14.00,2013-04-01 17:23:00,
2013-04-01 13:25:00,35.3,13.4,29.93,WNW,294,15.0,26.0,40,0.00,,---,0.00,VWS V14.00,2013-04-01 17:25:00,
2013-04-01 13:26:00,35.2,13.3,29.93,WSW,237,11.0,26.0,40,0.00,,---,0.00,VWS V14.00,2013-04-01 17:26:00,
2013-04-01 13:28:00,35.6,15.9,29.93,West,267,20.0,26.0,44,0.00,,---,0.00,VWS V14.00,2013-04-01 17:28:00,
2013-04-01 13:30:00,35.9,14.5,29.93,WNW,295,18.0,26.0,41,0.00,,---,0.00,VWS V14.00,2013-04-01 17:30:00,
2013-04-01 13:31:00,36.2,15.9,29.93,West,278,21.0,26.0,43,0.00,,---,0.00,VWS V14.00,2013-04-01 17:31:00,
2013-04-01 13:33:00,36.5,14.5,29.93,WNW,285,15.0,26.0,40,0.00,,---,0.00,VWS V14.00,2013-04-01 17:33:00,
2013-04-01 13:35:00,36.6,15.1,29.93,West,265,15.0,26.0,41,0.00,,---,0.00,VWS V14.00,2013-04-01 17:35:00,
2013-04-01 13:36:00,36.9,16.0,29.93,NW,308,9.0,26.0,42,0.00,,---,0.00,VWS V14.00,2013-04-01 17:36:00,
2013-04-01 13:38:00,37.3,16.9,29.93,WNW,299,9.0,26.0,43,0.00,,---,0.00,VWS V14.00,2013-04-01 17:38:00,
2013-04-01 13:40:00,37.3,14.6,29.93,WNW,302,15.0,26.0,39,0.00,,---,0.00,VWS V14.00,2013-04-01 17:40:00,
2013-04-01 13:41:00,37.2,13.9,29.93,NW,318,11.0,26.0,38,0.00,,---,0.00,VWS V14.00,2013-04-01 17:41:00,
2013-04-01 13:43:00,37.3,14.6,29.93,NNE,27,6.0,26.0,39,0.00,,---,0.00,VWS V14.00,2013-04-01 17:43:00,
2013-04-01 13:44:00,37.3,13.4,29.93,NNW,330,6.0,26.0,37,0.00,,---,0.00,VWS V14.00,2013-04-01 17:44:00,
2013-04-01 13:45:00,37.3,14.0,29.93,SSW,208,10.0,26.0,38,0.00,,---,0.00,VWS V14.00,2013-04-01 17:45:00,
2013-04-01 13:47:00,37.2,14.5,29.92,West,280,15.0,26.0,39,0.00,,---,0.00,VWS V14.00,2013-04-01 17:47:00,
2013-04-01 13:49:00,36.9,13.1,29.92,SSW,212,16.0,26.0,37,0.00,,---,0.00,VWS V14.00,2013-04-01 17:49:00,
2013-04-01 13:50:00,36.6,12.8,29.92,WSW,248,8.0,26.0,37,0.00,,---,0.00,VWS V14.00,2013-04-01 17:50:00,
2013-04-01 13:52:00,36.5,13.3,29.92,WNW,288,15.0,26.0,38,0.00,,---,0.00,VWS V14.00,2013-04-01 17:52:00,
2013-04-01 13:54:00,36.6,12.8,29.92,West,272,8.0,26.0,37,0.00,,---,0.00,VWS V14.00,2013-04-01 17:54:00,
2013-04-01 13:55:00,36.8,13.0,29.92,West,278,16.0,26.0,37,0.00,,---,0.00,VWS V14.00,2013-04-01 17:55:00,
2013-04-01 13:57:00,36.9,13.1,29.92,SSW,196,10.0,26.0,37,0.00,,---,0.00,VWS V14.00,2013-04-01 17:57:00,
2013-04-01 13:59:00,36.9,13.7,29.92,West,278,11.0,26.0,38,0.00,,---,0.00,VWS V14.00,2013-04-01 17:59:00,
2013-04-01 14:00:00,37.0,13.8,29.92,West,268,15.0,26.0,38,0.00,,---,0.00,VWS V14.00,2013-04-01 18:00:00,
2013-04-01 14:02:00,37.2,12.7,29.92,West,263,21.0,24.0,36,0.00,,---,0.00,VWS V14.00,2013-04-01 18:02:00,
2013-04-01 14:04:00,37.3,13.4,29.92,WSW,253,17.0,24.0,37,0.00,,---,0.00,VWS V14.00,2013-04-01 18:04:00,
2013-04-01 14:05:00,37.3,13.4,29.92,SSW,208,18.0,24.0,37,0.00,,---,0.00,VWS V14.00,2013-04-01 18:05:00,
2013-04-01 14:08:00,37.5,13.0,29.92,West,281,21.0,28.0,36,0.00,,---,0.00,VWS V14.00,2013-04-01 18:08:00,
2013-04-01 14:09:00,37.8,13.9,29.92,West,281,26.0,28.0,37,0.00,,---,0.00,VWS V14.00,2013-04-01 18:09:00,
2013-04-01 14:10:00,37.8,13.3,29.92,WNW,296,23.0,29.0,36,0.00,,---,0.00,VWS V14.00,2013-04-01 18:10:00,
2013-04-01 14:13:00,38.2,13.6,29.92,WNW,285,20.0,29.0,36,0.00,,---,0.00,VWS V14.00,2013-04-01 18:13:00,
2013-04-01 14:14:00,38.0,12.1,29.92,West,260,14.0,29.0,34,0.00,,---,0.00,VWS V14.00,2013-04-01 18:14:00,
2013-04-01 14:15:00,38.0,12.1,29.92,SW,233,14.0,29.0,34,0.00,,---,0.00,VWS V14.00,2013-04-01 18:15:00,
2013-04-01 14:18:00,37.6,12.4,29.92,SW,217,10.0,29.0,35,0.00,,---,0.00,VWS V14.00,2013-04-01 18:18:00,
2013-04-01 14:19:00,37.3,12.8,29.92,WNW,296,9.0,29.0,36,0.00,,---,0.00,VWS V14.00,2013-04-01 18:19:00,
2013-04-01 14:20:00,37.3,12.8,29.92,SW,226,11.0,29.0,36,0.00,,---,0.00,VWS V14.00,2013-04-01 18:20:00,
2013-04-01 14:23:00,37.6,13.1,29.92,West,280,16.0,29.0,36,0.00,,---,0.00,VWS V14.00,2013-04-01 18:23:00,
2013-04-01 14:24:00,37.8,13.3,29.92,West,280,11.0,29.0,36,0.00,,---,0.00,VWS V14.00,2013-04-01 18:24:00,
2013-04-01 14:25:00,37.8,13.9,29.92,West,272,13.0,29.0,37,0.00,,---,0.00,VWS V14.00,2013-04-01 18:25:00,
2013-04-01 14:28:00,38.3,15.5,29.92,SSW,202,20.0,29.0,39,0.00,,---,0.00,VWS V14.00,2013-04-01 18:28:00,
2013-04-01 14:29:00,38.3,13.7,29.92,SW,229,14.0,29.0,36,0.00,,---,0.00,VWS V14.00,2013-04-01 18:29:00,
2013-04-01 14:30:00,38.3,13.7,29.92,West,277,13.0,29.0,36,0.00,,---,0.00,VWS V14.00,2013-04-01 18:30:00,
2013-04-01 14:31:00,38.3,13.7,29.92,SW,217,15.0,29.0,36,0.00,,---,0.00,VWS V14.00,2013-04-01 18:31:00,
2013-04-01 14:33:00,38.3,13.1,29.92,SW,229,15.0,29.0,35,0.00,,---,0.00,VWS V14.00,2013-04-01 18:33:00,
2013-04-01 14:34:00,38.3,12.4,29.92,WNW,282,20.0,29.0,34,0.00,,---,0.00,VWS V14.00,2013-04-01 18:34:00,
2013-04-01 14:35:00,38.3,13.1,29.92,SW,219,15.0,29.0,35,0.00,,---,0.00,VWS V14.00,2013-04-01 18:35:00,
2013-04-01 14:36:00,38.2,12.3,29.92,SSW,212,16.0,29.0,34,0.00,,---,0.00,VWS V14.00,2013-04-01 18:36:00,
2013-04-01 14:38:00,38.2,12.3,29.92,WNW,298,14.0,29.0,34,0.00,,---,0.00,VWS V14.00,2013-04-01 18:38:00,
2013-04-01 14:40:00,38.6,14.6,29.92,SW,227,15.0,29.0,37,0.00,,---,0.00,VWS V14.00,2013-04-01 18:40:00,
2013-04-01 14:41:00,38.3,11.7,29.92,WNW,295,16.0,29.0,33,0.00,,---,0.00,VWS V14.00,2013-04-01 18:41:00,
2013-04-01 14:43:00,38.3,12.4,29.92,West,265,11.0,29.0,34,0.00,,---,0.00,VWS V14.00,2013-04-01 18:43:00,
2013-04-01 14:45:00,38.3,13.7,29.92,WNW,282,14.0,29.0,36,0.00,,---,0.00,VWS V14.00,2013-04-01 18:45:00,
2013-04-01 14:47:00,38.0,10.8,29.92,WNW,288,22.0,29.0,32,0.00,,---,0.00,VWS V14.00,2013-04-01 18:47:00,
2013-04-01 14:48:00,38.0,12.8,29.92,WNW,295,22.0,29.0,35,0.00,,---,0.00,VWS V14.00,2013-04-01 18:48:00,
2013-04-01 14:50:00,37.9,12.7,29.92,West,268,21.0,30.0,35,0.00,,---,0.00,VWS V14.00,2013-04-01 18:50:00,
2013-04-01 14:52:00,37.6,11.8,29.92,WNW,282,17.0,30.0,34,0.00,,---,0.00,VWS V14.00,2013-04-01 18:52:00,
2013-04-01 14:54:00,37.6,11.1,29.92,WNW,302,9.0,30.0,33,0.00,,---,0.00,VWS V14.00,2013-04-01 18:54:00,
2013-04-01 14:55:00,37.9,14.0,29.92,West,270,11.0,30.0,37,0.00,,---,0.00,VWS V14.00,2013-04-01 18:55:00,
2013-04-01 14:57:00,38.2,13.0,29.92,WNW,289,11.0,30.0,35,0.00,,---,0.00,VWS V14.00,2013-04-01 18:57:00,
2013-04-01 14:59:00,38.2,13.0,29.92,NW,304,15.0,30.0,35,0.00,,---,0.00,VWS V14.00,2013-04-01 18:59:00,
2013-04-01 15:00:00,38.0,12.1,29.92,WNW,301,10.0,30.0,34,0.00,,---,0.00,VWS V14.00,2013-04-01 19:00:00,
2013-04-01 15:01:00,38.2,13.6,29.92,West,281,14.0,30.0,36,0.00,,---,0.00,VWS V14.00,2013-04-01 19:01:00,
2013-04-01 15:02:00,38.3,14.3,29.92,WNW,289,17.0,20.0,37,0.00,,---,0.00,VWS V14.00,2013-04-01 19:02:00,
2013-04-01 15:04:00,38.6,14.0,29.92,WSW,257,11.0,20.0,36,0.00,,---,0.00,VWS V14.00,2013-04-01 19:04:00,
2013-04-01 15:05:00,38.6,14.0,29.92,West,274,14.0,22.0,36,0.00,,---,0.00,VWS V14.00,2013-04-01 19:05:00,
2013-04-01 15:07:00,38.8,13.5,29.92,WNW,301,15.0,24.0,35,0.00,,---,0.00,VWS V14.00,2013-04-01 19:07:00,
2013-04-01 15:08:00,38.9,13.6,29.92,WNW,298,24.0,24.0,35,0.00,,---,0.00,VWS V14.00,2013-04-01 19:08:00,
2013-04-01 15:09:00,38.8,12.2,29.92,NW,325,16.0,24.0,33,0.00,,---,0.00,VWS V14.00,2013-04-01 19:09:00,
2013-04-01 15:10:00,38.5,11.2,29.92,NW,319,18.0,24.0,32,0.00,,---,0.00,VWS V14.00,2013-04-01 19:10:00,
2013-04-01 15:12:00,38.3,11.0,29.92,NNE,31,9.0,24.0,32,0.00,,---,0.00,VWS V14.00,2013-04-01 19:12:00,
2013-04-01 15:13:00,38.3,11.0,29.92,WNW,302,4.0,24.0,32,0.00,,---,0.00,VWS V14.00,2013-04-01 19:13:00,
2013-04-01 15:14:00,38.3,12.4,29.92,NNW,344,11.0,24.0,34,0.00,,---,0.00,VWS V14.00,2013-04-01 19:14:00,
2013-04-01 15:15:00,38.3,11.7,29.92,West,275,13.0,24.0,33,0.00,,---,0.00,VWS V14.00,2013-04-01 19:15:00,
2013-04-01 15:17:00,38.0,11.5,29.92,WNW,289,8.0,24.0,33,0.00,,---,0.00,VWS V14.00,2013-04-01 19:17:00,
2013-04-01 15:18:00,37.9,11.4,29.92,NNW,340,8.0,24.0,33,0.00,,---,0.00,VWS V14.00,2013-04-01 19:18:00,
2013-04-01 15:19:00,37.9,11.4,29.92,NNW,337,11.0,24.0,33,0.00,,---,0.00,VWS V14.00,2013-04-01 19:19:00,
2013-04-01 15:21:00,37.8,10.6,29.92,WNW,295,16.0,24.0,32,0.00,,---,0.00,VWS V14.00,2013-04-01 19:21:00,
2013-04-01 15:22:00,37.6,11.1,29.92,WNW,302,10.0,24.0,33,0.00,,---,0.00,VWS V14.00,2013-04-01 19:22:00,
2013-04-01 15:23:00,37.5,11.7,29.92,WNW,289,18.0,24.0,34,0.00,,---,0.00,VWS V14.00,2013-04-01 19:23:00,
2013-04-01 15:24:00,37.3,11.5,29.92,WNW,295,16.0,26.0,34,0.00,,---,0.00,VWS V14.00,2013-04-01 19:24:00,
2013-04-01 15:26:00,37.2,10.8,29.92,WNW,282,18.0,26.0,33,0.00,,---,0.00,VWS V14.00,2013-04-01 19:26:00,
2013-04-01 15:27:00,36.9,11.8,29.92,WNW,282,13.0,26.0,35,0.00,,---,0.00,VWS V14.00,2013-04-01 19:27:00,
2013-04-01 15:28:00,36.8,11.7,29.92,WNW,287,16.0,26.0,35,0.00,,---,0.00,VWS V14.00,2013-04-01 19:28:00,
2013-04-01 15:29:00,36.8,11.1,29.92,West,272,14.0,26.0,34,0.00,,---,0.00,VWS V14.00,2013-04-01 19:29:00,
2013-04-01 15:31:00,36.6,11.6,29.93,West,281,10.0,26.0,35,0.00,,---,0.00,VWS V14.00,2013-04-01 19:31:00,
2013-04-01 15:32:00,36.5,12.1,29.93,West,278,15.0,26.0,36,0.00,,---,0.00,VWS V14.00,2013-04-01 19:32:00,
2013-04-01 15:34:00,36.3,11.3,29.93,West,275,16.0,26.0,35,0.00,,---,0.00,VWS V14.00,2013-04-01 19:34:00,
2013-04-01 15:36:00,36.0,12.3,29.93,WNW,299,18.0,26.0,37,0.00,,---,0.00,VWS V14.00,2013-04-01 19:36:00,
2013-04-01 15:38:00,35.9,11.6,29.93,West,275,18.0,26.0,36,0.00,,---,0.00,VWS V14.00,2013-04-01 19:38:00,
2013-04-01 15:39:00,36.0,12.3,29.93,SSW,210,21.0,26.0,37,0.00,,---,0.00,VWS V14.00,2013-04-01 19:39:00,
2013-04-01 15:41:00,36.0,12.9,29.93,West,270,22.0,26.0,38,0.00,,---,0.00,VWS V14.00,2013-04-01 19:41:00,
2013-04-01 15:43:00,36.0,11.6,29.93,WNW,292,16.0,26.0,36,0.00,,---,0.00,VWS V14.00,2013-04-01 19:43:00,
2013-04-01 15:44:00,36.0,12.9,29.93,West,280,15.0,26.0,38,0.00,,---,0.00,VWS V14.00,2013-04-01 19:44:00,
2013-04-01 15:46:00,35.9,12.2,29.93,West,274,21.0,26.0,37,0.00,,---,0.00,VWS V14.00,2013-04-01 19:46:00,
2013-04-01 15:48:00,35.8,11.5,29.93,WNW,296,11.0,26.0,36,0.00,,---,0.00,VWS V14.00,2013-04-01 19:48:00,
2013-04-01 15:49:00,35.8,11.5,29.93,West,280,11.0,26.0,36,0.00,,---,0.00,VWS V14.00,2013-04-01 19:49:00,
2013-04-01 15:51:00,35.8,13.3,29.93,NW,312,8.0,26.0,39,0.00,,---,0.00,VWS V14.00,2013-04-01 19:51:00,
2013-04-01 15:53:00,35.9,13.4,29.93,NNW,330,4.0,26.0,39,0.00,,---,0.00,VWS V14.00,2013-04-01 19:53:00,
2013-04-01 15:54:00,35.9,12.8,29.93,WSW,257,11.0,26.0,38,0.00,,---,0.00,VWS V14.00,2013-04-01 19:54:00,
2013-04-01 15:56:00,36.2,13.6,29.93,WNW,294,16.0,26.0,39,0.00,,---,0.00,VWS V14.00,2013-04-01 19:56:00,
2013-04-01 15:58:00,36.3,13.7,29.93,WNW,288,15.0,26.0,39,0.00,,---,0.00,VWS V14.00,2013-04-01 19:58:00,
2013-04-01 15:59:00,36.5,13.3,29.93,WNW,287,20.0,26.0,38,0.00,,---,0.00,VWS V14.00,2013-04-01 19:59:00,
2013-04-01 16:01:00,36.6,12.8,29.93,West,267,17.0,25.0,37,0.00,,---,0.00,VWS V14.00,2013-04-01 20:01:00,
2013-04-01 16:03:00,36.8,13.0,29.93,West,275,25.0,25.0,37,0.00,,---,0.00,VWS V14.00,2013-04-01 20:03:00,
2013-04-01 16:04:00,36.9,13.1,29.93,WNW,285,18.0,26.0,37,0.00,,---,0.00,VWS V14.00,2013-04-01 20:04:00,
2013-04-01 16:06:00,37.0,11.9,29.93,WNW,292,17.0,26.0,35,0.00,,---,0.00,VWS V14.00,2013-04-01 20:06:00,
2013-04-01 16:08:00,37.0,12.5,29.93,WSW,239,20.0,26.0,36,0.00,,---,0.00,VWS V14.00,2013-04-01 20:08:00,
2013-04-01 16:09:00,37.2,13.3,29.93,SSW,213,25.0,26.0,37,0.00,,---,0.00,VWS V14.00,2013-04-01 20:09:00,
2013-04-01 16:12:00,37.0,11.9,29.93,West,277,15.0,29.0,35,0.00,,---,0.00,VWS V14.00,2013-04-01 20:12:00,
2013-04-01 16:13:00,37.0,13.2,29.93,West,268,22.0,29.0,37,0.00,,---,0.00,VWS V14.00,2013-04-01 20:13:00,
2013-04-01 16:14:00,36.9,12.4,29.93,SSW,200,17.0,29.0,36,0.00,,---,0.00,VWS V14.00,2013-04-01 20:14:00,
2013-04-01 16:15:00,36.9,12.4,29.93,WNW,298,15.0,29.0,36,0.00,,---,0.00,VWS V14.00,2013-04-01 20:15:00,
2013-04-01 16:17:00,36.5,11.5,29.93,West,270,15.0,29.0,35,0.00,,---,0.00,VWS V14.00,2013-04-01 20:17:00,
2013-04-01 16:18:00,36.2,11.2,29.93,West,271,17.0,29.0,35,0.00,,---,0.00,VWS V14.00,2013-04-01 20:18:00,
2013-04-01 16:20:00,36.3,10.6,29.93,West,267,26.0,29.0,34,0.00,,---,0.00,VWS V14.00,2013-04-01 20:20:00,
2013-04-01 16:22:00,36.5,12.1,29.93,WNW,291,11.0,29.0,36,0.00,,---,0.00,VWS V14.00,2013-04-01 20:22:00,
2013-04-01 16:23:00,36.6,13.4,29.93,SSW,210,14.0,29.0,38,0.00,,---,0.00,VWS V14.00,2013-04-01 20:23:00,
2013-04-01 16:25:00,36.6,12.8,29.93,West,267,13.0,29.0,37,0.00,,---,0.00,VWS V14.00,2013-04-01 20:25:00,
2013-04-01 16:28:00,36.6,12.8,29.93,WNW,288,11.0,29.0,37,0.00,,---,0.00,VWS V14.00,2013-04-01 20:28:00,
2013-04-01 16:29:00,36.5,12.7,29.93,WNW,295,18.0,29.0,37,0.00,,---,0.00,VWS V14.00,2013-04-01 20:29:00,
2013-04-01 16:30:00,36.3,11.9,29.93,WNW,287,17.0,29.0,36,0.00,,---,0.00,VWS V14.00,2013-04-01 20:30:00,
2013-04-01 16:33:00,36.2,11.8,29.94,WSW,257,20.0,29.0,36,0.00,,---,0.00,VWS V14.00,2013-04-01 20:33:00,
2013-04-01 16:34:00,36.0,12.3,29.94,West,278,7.0,29.0,37,0.00,,---,0.00,VWS V14.00,2013-04-01 20:34:00,
2013-04-01 16:35:00,36.0,12.9,29.94,West,272,18.0,29.0,38,0.00,,---,0.00,VWS V14.00,2013-04-01 20:35:00,
2013-04-01 16:38:00,35.9,11.6,29.94,SSW,196,8.0,29.0,36,0.00,,---,0.00,VWS V14.00,2013-04-01 20:38:00,
2013-04-01 16:39:00,35.8,12.1,29.94,WNW,292,16.0,29.0,37,0.00,,---,0.00,VWS V14.00,2013-04-01 20:39:00,
2013-04-01 16:40:00,35.8,12.1,29.94,West,278,17.0,29.0,37,0.00,,---,0.00,VWS V14.00,2013-04-01 20:40:00,
2013-04-01 16:43:00,35.8,12.7,29.94,SSW,210,13.0,29.0,38,0.00,,---,0.00,VWS V14.00,2013-04-01 20:43:00,
2013-04-01 16:44:00,35.8,12.7,29.94,WNW,287,16.0,29.0,38,0.00,,---,0.00,VWS V14.00,2013-04-01 20:44:00,
2013-04-01 16:45:00,35.8,12.7,29.94,West,270,14.0,29.0,38,0.00,,---,0.00,VWS V14.00,2013-04-01 20:45:00,
2013-04-01 16:48:00,35.5,11.8,29.94,WSW,258,17.0,29.0,37,0.00,,---,0.00,VWS V14.00,2013-04-01 20:48:00,
2013-04-01 16:49:00,35.5,11.8,29.94,SW,230,21.0,29.0,37,0.00,,---,0.00,VWS V14.00,2013-04-01 20:49:00,
2013-04-01 16:50:00,35.5,11.8,29.94,WNW,282,14.0,29.0,37,0.00,,---,0.00,VWS V14.00,2013-04-01 20:50:00,
2013-04-01 16:53:00,35.6,11.9,29.94,WNW,294,20.0,29.0,37,0.00,,---,0.00,VWS V14.00,2013-04-01 20:53:00,
2013-04-01 16:54:00,35.6,11.9,29.94,WNW,295,21.0,29.0,37,0.00,,---,0.00,VWS V14.00,2013-04-01 20:54:00,
2013-04-01 16:55:00,35.6,11.3,29.94,West,281,17.0,29.0,36,0.00,,---,0.00,VWS V14.00,2013-04-01 20:55:00,
2013-04-01 16:58:00,35.6,11.9,29.94,NW,304,16.0,29.0,37,0.00,,---,0.00,VWS V14.00,2013-04-01 20:58:00,
2013-04-01 17:00:00,35.6,11.9,29.94,WNW,292,21.0,29.0,37,0.00,,---,0.00,VWS V14.00,2013-04-01 21:00:00,
2013-04-01 17:04:00,35.6,12.5,29.94,WNW,299,13.0,18.0,38,0.00,,---,0.00,VWS V14.00,2013-04-01 21:04:00,
2013-04-01 17:05:00,35.6,12.5,29.94,WNW,287,21.0,24.0,38,0.00,,---,0.00,VWS V14.00,2013-04-01 21:05:00,
2013-04-01 17:09:00,35.3,12.2,29.94,West,277,10.0,24.0,38,0.00,,---,0.00,VWS V14.00,2013-04-01 21:09:00,
2013-04-01 17:10:00,35.3,12.8,29.94,WNW,292,21.0,24.0,39,0.00,,---,0.00,VWS V14.00,2013-04-01 21:10:00,
2013-04-01 17:14:00,35.2,13.3,29.94,WNW,285,14.0,24.0,40,0.00,,---,0.00,VWS V14.00,2013-04-01 21:14:00,
2013-04-01 17:15:00,35.2,13.3,29.94,West,280,14.0,24.0,40,0.00,,---,0.00,VWS V14.00,2013-04-01 21:15:00,
2013-04-01 17:16:00,35.2,13.3,29.95,West,280,13.0,24.0,40,0.00,,---,0.00,VWS V14.00,2013-04-01 21:16:00,
2013-04-01 17:19:00,35.2,13.3,29.95,West,277,17.0,25.0,40,0.00,,---,0.00,VWS V14.00,2013-04-01 21:19:00,
2013-04-01 17:20:00,35.2,12.7,29.95,WNW,298,17.0,29.0,39,0.00,,---,0.00,VWS V14.00,2013-04-01 21:20:00,
2013-04-01 17:22:00,35.0,12.6,29.95,West,264,13.0,29.0,39,0.00,,---,0.00,VWS V14.00,2013-04-01 21:22:00,
2013-04-01 17:24:00,35.2,13.9,29.95,NW,319,2.0,29.0,41,0.00,,---,0.00,VWS V14.00,2013-04-01 21:24:00,
2013-04-01 17:25:00,35.2,13.9,29.95,NNW,332,16.0,29.0,41,0.00,,---,0.00,VWS V14.00,2013-04-01 21:25:00,
2013-04-01 17:26:00,35.2,13.3,29.95,WNW,284,10.0,29.0,40,0.00,,---,0.00,VWS V14.00,2013-04-01 21:26:00,
2013-04-01 17:27:00,35.3,13.4,29.95,WNW,294,21.0,29.0,40,0.00,,---,0.00,VWS V14.00,2013-04-01 21:27:00,
2013-04-01 17:29:00,35.3,13.4,29.95,WNW,295,17.0,29.0,40,0.00,,---,0.00,VWS V14.00,2013-04-01 21:29:00,
2013-04-01 17:30:00,35.3,13.4,29.95,West,264,21.0,29.0,40,0.00,,---,0.00,VWS V14.00,2013-04-01 21:30:00,
2013-04-01 17:31:00,35.3,14.0,29.95,West,261,11.0,29.0,41,0.00,,---,0.00,VWS V14.00,2013-04-01 21:31:00,
2013-04-01 17:32:00,35.2,13.9,29.95,WNW,288,14.0,29.0,41,0.00,,---,0.00,VWS V14.00,2013-04-01 21:32:00,
2013-04-01 17:34:00,35.0,13.1,29.95,NW,306,10.0,29.0,40,0.00,,---,0.00,VWS V14.00,2013-04-01 21:34:00,
2013-04-01 17:36:00,35.0,13.7,29.95,NW,309,15.0,29.0,41,0.00,,---,0.00,VWS V14.00,2013-04-01 21:36:00,
2013-04-01 17:37:00,34.9,13.6,29.95,North,0,11.0,29.0,41,0.00,,---,0.00,VWS V14.00,2013-04-01 21:37:00,
2013-04-01 17:39:00,34.9,13.6,29.95,NW,323,17.0,29.0,41,0.00,,---,0.00,VWS V14.00,2013-04-01 21:39:00,
2013-04-01 17:41:00,34.9,14.1,29.95,WSW,257,11.0,29.0,42,0.00,,---,0.00,VWS V14.00,2013-04-01 21:41:00,
2013-04-01 17:43:00,34.9,14.1,29.95,West,275,22.0,29.0,42,0.00,,---,0.00,VWS V14.00,2013-04-01 21:43:00,
2013-04-01 17:44:00,34.7,14.0,29.95,WNW,295,16.0,29.0,42,0.00,,---,0.00,VWS V14.00,2013-04-01 21:44:00,
2013-04-01 17:46:00,34.6,13.9,29.96,NW,322,13.0,29.0,42,0.00,,---,0.00,VWS V14.00,2013-04-01 21:46:00,
2013-04-01 17:48:00,34.4,13.7,29.96,West,270,20.0,29.0,42,0.00,,---,0.00,VWS V14.00,2013-04-01 21:48:00,
2013-04-01 17:49:00,34.4,13.7,29.96,WNW,294,20.0,29.0,42,0.00,,---,0.00,VWS V14.00,2013-04-01 21:49:00,
2013-04-01 17:51:00,34.4,13.7,29.96,NNW,329,11.0,29.0,42,0.00,,---,0.00,VWS V14.00,2013-04-01 21:51:00,
2013-04-01 17:52:00,34.4,13.7,29.96,WNW,291,15.0,29.0,42,0.00,,---,0.00,VWS V14.00,2013-04-01 21:52:00,
2013-04-01 17:53:00,34.6,13.9,29.96,SW,230,10.0,29.0,42,0.00,,---,0.00,VWS V14.00,2013-04-01 21:53:00,
2013-04-01 17:54:00,34.6,14.4,29.96,West,274,7.0,29.0,43,0.00,,---,0.00,VWS V14.00,2013-04-01 21:54:00,
2013-04-01 17:56:00,34.6,14.4,29.96,WNW,291,17.0,29.0,43,0.00,,---,0.00,VWS V14.00,2013-04-01 21:56:00,
2013-04-01 17:57:00,34.6,14.4,29.96,WNW,284,14.0,29.0,43,0.00,,---,0.00,VWS V14.00,2013-04-01 21:57:00,
2013-04-01 17:58:00,34.6,13.9,29.96,WNW,295,10.0,29.0,42,0.00,,---,0.00,VWS V14.00,2013-04-01 21:58:00,
2013-04-01 17:59:00,34.6,13.9,29.96,WNW,289,9.0,29.0,42,0.00,,---,0.00,VWS V14.00,2013-04-01 21:59:00,
2013-04-01 18:01:00,34.7,14.5,29.96,WNW,299,17.0,29.0,43,0.00,,---,0.00,VWS V14.00,2013-04-01 22:01:00,
2013-04-01 18:02:00,34.7,14.5,29.96,WNW,282,9.0,10.0,43,0.00,,---,0.00,VWS V14.00,2013-04-01 22:02:00,
2013-04-01 18:03:00,34.9,14.7,29.96,WNW,292,21.0,21.0,43,0.00,,---,0.00,VWS V14.00,2013-04-01 22:03:00,
2013-04-01 18:04:00,34.9,14.7,29.96,WNW,294,13.0,21.0,43,0.00,,---,0.00,VWS V14.00,2013-04-01 22:04:00,
2013-04-01 18:07:00,34.7,14.0,29.96,West,278,15.0,21.0,42,0.00,,---,0.00,VWS V14.00,2013-04-01 22:07:00,
2013-04-01 18:08:00,34.7,13.4,29.96,WNW,285,13.0,21.0,41,0.00,,---,0.00,VWS V14.00,2013-04-01 22:08:00,
2013-04-01 18:09:00,34.6,13.3,29.96,WNW,301,14.0,21.0,41,0.00,,---,0.00,VWS V14.00,2013-04-01 22:09:00,
2013-04-01 18:12:00,34.6,13.3,29.96,WNW,299,7.0,24.0,41,0.00,,---,0.00,VWS V14.00,2013-04-01 22:12:00,
2013-04-01 18:13:00,34.4,13.1,29.96,SSW,206,17.0,24.0,41,0.00,,---,0.00,VWS V14.00,2013-04-01 22:13:00,
2013-04-01 18:14:00,34.4,12.0,29.96,WNW,287,21.0,24.0,39,0.00,,---,0.00,VWS V14.00,2013-04-01 22:14:00,
2013-04-01 18:17:00,34.3,11.9,29.97,WNW,285,11.0,24.0,39,0.00,,---,0.00,VWS V14.00,2013-04-01 22:17:00,
2013-04-01 18:18:00,34.3,11.9,29.97,WNW,285,14.0,25.0,39,0.00,,---,0.00,VWS V14.00,2013-04-01 22:18:00,
2013-04-01 18:20:00,34.1,11.8,29.97,West,280,15.0,25.0,39,0.00,,---,0.00,VWS V14.00,2013-04-01 22:20:00,
2013-04-01 18:22:00,34.0,12.2,29.97,West,274,13.0,25.0,40,0.00,,---,0.00,VWS V14.00,2013-04-01 22:22:00,
2013-04-01 18:24:00,34.0,12.2,29.97,West,274,15.0,25.0,40,0.00,,---,0.00,VWS V14.00,2013-04-01 22:24:00,
2013-04-01 18:25:00,33.8,12.6,29.97,WNW,294,16.0,25.0,41,0.00,,---,0.00,VWS V14.00,2013-04-01 22:25:00,
2013-04-01 18:27:00,34.0,13.3,29.97,West,280,15.0,25.0,42,0.00,,---,0.00,VWS V14.00,2013-04-01 22:27:00,
2013-04-01 18:29:00,34.0,13.9,29.97,WNW,285,9.0,25.0,43,0.00,,---,0.00,VWS V14.00,2013-04-01 22:29:00,
2013-04-01 18:30:00,34.1,14.0,29.97,WNW,295,9.0,25.0,43,0.00,,---,0.00,VWS V14.00,2013-04-01 22:30:00,
2013-04-01 18:32:00,34.1,14.0,29.97,NNW,330,21.0,25.0,43,0.00,,---,0.00,VWS V14.00,2013-04-01 22:32:00,
2013-04-01 18:34:00,34.0,13.3,29.97,West,280,16.0,25.0,42,0.00,,---,0.00,VWS V14.00,2013-04-01 22:34:00,
2013-04-01 18:35:00,34.0,13.3,29.97,NW,309,14.0,25.0,42,0.00,,---,0.00,VWS V14.00,2013-04-01 22:35:00,
2013-04-01 18:37:00,33.8,13.1,29.97,WNW,285,13.0,25.0,42,0.00,,---,0.00,VWS V14.00,2013-04-01 22:37:00,
2013-04-01 18:38:00,33.8,13.1,29.97,West,271,11.0,25.0,42,0.00,,---,0.00,VWS V14.00,2013-04-01 22:38:00,
2013-04-01 18:39:00,34.0,13.9,29.97,WNW,284,16.0,25.0,43,0.00,,---,0.00,VWS V14.00,2013-04-01 22:39:00,
2013-04-01 18:40:00,33.8,13.1,29.97,WNW,301,17.0,25.0,42,0.00,,---,0.00,VWS V14.00,2013-04-01 22:40:00,
2013-04-01 18:43:00,33.7,13.6,29.97,WNW,292,8.0,25.0,43,0.00,,---,0.00,VWS V14.00,2013-04-01 22:43:00,
2013-04-01 18:44:00,33.7,13.6,29.97,WNW,295,8.0,25.0,43,0.00,,---,0.00,VWS V14.00,2013-04-01 22:44:00,
2013-04-01 18:45:00,33.5,13.4,29.97,NW,313,11.0,25.0,43,0.00,,---,0.00,VWS V14.00,2013-04-01 22:45:00,
2013-04-01 18:48:00,33.4,12.2,29.98,WNW,296,10.0,25.0,41,0.00,,---,0.00,VWS V14.00,2013-04-01 22:48:00,
2013-04-01 18:49:00,33.2,12.6,29.98,West,278,13.0,25.0,42,0.00,,---,0.00,VWS V14.00,2013-04-01 22:49:00,
2013-04-01 18:50:00,33.2,12.6,29.98,NW,313,8.0,25.0,42,0.00,,---,0.00,VWS V14.00,2013-04-01 22:50:00,
2013-04-01 18:53:00,33.4,12.8,29.98,West,261,14.0,25.0,42,0.00,,---,0.00,VWS V14.00,2013-04-01 22:53:00,
2013-04-01 18:54:00,33.5,12.9,29.98,West,275,22.0,25.0,42,0.00,,---,0.00,VWS V14.00,2013-04-01 22:54:00,
2013-04-01 18:55:00,33.5,12.3,29.98,WNW,298,20.0,25.0,41,0.00,,---,0.00,VWS V14.00,2013-04-01 22:55:00,
2013-04-01 18:58:00,33.5,12.9,29.98,West,275,13.0,25.0,42,0.00,,---,0.00,VWS V14.00,2013-04-01 22:58:00,
2013-04-01 18:59:00,33.5,12.9,29.98,WSW,257,10.0,25.0,42,0.00,,---,0.00,VWS V14.00,2013-04-01 22:59:00,
2013-04-01 19:00:00,33.5,12.9,29.98,NW,312,16.0,25.0,42,0.00,,---,0.00,VWS V14.00,2013-04-01 23:00:00,
2013-04-01 19:03:00,33.2,12.1,29.98,West,280,16.0,24.0,41,0.00,,---,0.00,VWS V14.00,2013-04-01 23:03:00,
2013-04-01 19:04:00,33.2,12.6,29.98,WNW,284,8.0,24.0,42,0.00,,---,0.00,VWS V14.00,2013-04-01 23:04:00,
2013-04-01 19:05:00,33.2,12.6,29.98,WNW,301,17.0,24.0,42,0.00,,---,0.00,VWS V14.00,2013-04-01 23:05:00,
2013-04-01 19:08:00,32.9,11.8,29.98,WNW,287,20.0,24.0,41,0.00,,---,0.00,VWS V14.00,2013-04-01 23:08:00,
2013-04-01 19:09:00,32.9,11.8,29.98,WNW,287,16.0,24.0,41,0.00,,---,0.00,VWS V14.00,2013-04-01 23:09:00,
2013-04-01 19:10:00,32.8,11.7,29.98,SW,217,16.0,24.0,41,0.00,,---,0.00,VWS V14.00,2013-04-01 23:10:00,
2013-04-01 19:13:00,32.5,11.4,29.98,West,271,21.0,24.0,41,0.00,,---,0.00,VWS V14.00,2013-04-01 23:13:00,
2013-04-01 19:15:00,32.4,11.3,29.98,SW,223,9.0,24.0,41,0.00,,---,0.00,VWS V14.00,2013-04-01 23:15:00,
2013-04-01 19:18:00,32.1,11.6,29.99,WNW,295,15.0,25.0,42,0.00,,---,0.00,VWS V14.00,2013-04-01 23:18:00,
2013-04-01 19:20:00,31.9,11.4,29.99,NW,311,11.0,25.0,42,0.00,,---,0.00,VWS V14.00,2013-04-01 23:20:00,
2013-04-01 19:23:00,31.6,11.7,29.99,WNW,287,11.0,25.0,43,0.00,,---,0.00,VWS V14.00,2013-04-01 23:23:00,
2013-04-01 19:25:00,31.6,12.2,29.99,West,278,10.0,25.0,44,0.00,,---,0.00,VWS V14.00,2013-04-01 23:25:00,
2013-04-01 19:28:00,31.5,12.1,29.99,WNW,292,10.0,25.0,44,0.00,,---,0.00,VWS V14.00,2013-04-01 23:28:00,
2013-04-01 19:30:00,31.5,12.1,29.99,NW,313,11.0,25.0,44,0.00,,---,0.00,VWS V14.00,2013-04-01 23:30:00,
2013-04-01 19:31:00,31.5,12.1,29.99,WNW,282,8.0,25.0,44,0.00,,---,0.00,VWS V14.00,2013-04-01 23:31:00,
2013-04-01 19:33:00,31.5,12.6,29.99,WNW,289,9.0,25.0,45,0.00,,---,0.00,VWS V14.00,2013-04-01 23:33:00,
2013-04-01 19:34:00,31.5,12.6,29.99,WNW,292,10.0,25.0,45,0.00,,---,0.00,VWS V14.00,2013-04-01 23:34:00,
2013-04-01 19:35:00,31.3,12.4,29.99,WNW,294,13.0,25.0,45,0.00,,---,0.00,VWS V14.00,2013-04-01 23:35:00,
2013-04-01 19:36:00,31.3,12.4,29.99,WNW,295,20.0,25.0,45,0.00,,---,0.00,VWS V14.00,2013-04-01 23:36:00,
2013-04-01 19:39:00,31.3,11.9,29.99,West,261,15.0,25.0,44,0.00,,---,0.00,VWS V14.00,2013-04-01 23:39:00,
2013-04-01 19:41:00,31.3,11.4,29.99,WNW,294,11.0,25.0,43,0.00,,---,0.00,VWS V14.00,2013-04-01 23:41:00,
2013-04-01 19:44:00,31.2,11.3,29.99,West,272,14.0,25.0,43,0.00,,---,0.00,VWS V14.00,2013-04-01 23:44:00,
2013-04-01 19:46:00,31.2,11.8,30.00,NW,313,9.0,25.0,44,0.00,,---,0.00,VWS V14.00,2013-04-01 23:46:00,
2013-04-01 19:49:00,31.0,11.7,30.00,West,260,8.0,25.0,44,0.00,,---,0.00,VWS V14.00,2013-04-01 23:49:00,
2013-04-01 19:51:00,30.9,11.6,30.00,WSW,248,11.0,25.0,44,0.00,,---,0.00,VWS V14.00,2013-04-01 23:51:00,
2013-04-01 19:54:00,30.7,11.9,30.00,SW,223,11.0,25.0,45,0.00,,---,0.00,VWS V14.00,2013-04-01 23:54:00,
2013-04-01 19:56:00,30.7,11.9,30.00,WNW,296,8.0,25.0,45,0.00,,---,0.00,VWS V14.00,2013-04-01 23:56:00,
2013-04-01 19:57:00,30.6,11.8,30.00,West,275,13.0,25.0,45,0.00,,---,0.00,VWS V14.00,2013-04-01 23:57:00,
2013-04-01 19:59:00,30.6,12.3,30.00,West,272,10.0,25.0,46,0.00,,---,0.00,VWS V14.00,2013-04-01 23:59:00,
2013-04-01 20:02:00,30.6,12.3,30.00,WNW,291,13.0,13.0,46,0.00,,---,0.00,VWS V14.00,2013-04-02 00:02:00,
2013-04-01 20:04:00,30.4,12.1,30.00,West,278,10.0,17.0,46,0.00,,---,0.00,VWS V14.00,2013-04-02 00:04:00,
2013-04-01 20:05:00,30.4,12.1,30.00,SW,233,18.0,20.0,46,0.00,,---,0.00,VWS V14.00,2013-04-02 00:05:00,
2013-04-01 20:07:00,30.4,11.6,30.00,WNW,284,9.0,24.0,45,0.00,,---,0.00,VWS V14.00,2013-04-02 00:07:00,
2013-04-01 20:09:00,30.4,11.6,30.00,West,271,13.0,24.0,45,0.00,,---,0.00,VWS V14.00,2013-04-02 00:09:00,
2013-04-01 20:10:00,30.4,11.6,30.00,WNW,288,16.0,24.0,45,0.00,,---,0.00,VWS V14.00,2013-04-02 00:10:00,
2013-04-01 20:12:00,30.4,11.6,30.00,WNW,291,11.0,24.0,45,0.00,,---,0.00,VWS V14.00,2013-04-02 00:12:00,
2013-04-01 20:14:00,30.4,11.6,30.00,WNW,292,16.0,24.0,45,0.00,,---,0.00,VWS V14.00,2013-04-02 00:14:00,
2013-04-01 20:15:00,30.4,11.6,30.00,WNW,298,13.0,24.0,45,0.00,,---,0.00,VWS V14.00,2013-04-02 00:15:00,
2013-04-01 20:17:00,30.4,12.1,30.00,WNW,284,8.0,24.0,46,0.00,,---,0.00,VWS V14.00,2013-04-02 00:17:00,
2013-04-01 20:19:00,30.3,12.0,30.00,WSW,239,9.0,24.0,46,0.00,,---,0.00,VWS V14.00,2013-04-02 00:19:00,
2013-04-01 20:20:00,30.3,12.0,30.00,West,278,6.0,24.0,46,0.00,,---,0.00,VWS V14.00,2013-04-02 00:20:00,
2013-04-01 20:22:00,30.3,12.5,30.00,West,271,11.0,24.0,47,0.00,,---,0.00,VWS V14.00,2013-04-02 00:22:00,
2013-04-01 20:24:00,30.3,12.5,30.00,WNW,287,13.0,24.0,47,0.00,,---,0.00,VWS V14.00,2013-04-02 00:24:00,
2013-04-01 20:26:00,30.1,12.3,30.00,SW,223,7.0,24.0,47,0.00,,---,0.00,VWS V14.00,2013-04-02 00:26:00,
2013-04-01 20:27:00,30.1,12.3,30.00,WNW,296,15.0,24.0,47,0.00,,---,0.00,VWS V14.00,2013-04-02 00:27:00,
2013-04-01 20:29:00,30.1,12.3,30.00,West,278,13.0,25.0,47,0.00,,---,0.00,VWS V14.00,2013-04-02 00:29:00,
2013-04-01 20:32:00,30.0,12.2,30.01,West,274,21.0,25.0,47,0.00,,---,0.00,VWS V14.00,2013-04-02 00:32:00,
2013-04-01 20:33:00,30.0,12.2,30.01,WNW,291,17.0,25.0,47,0.00,,---,0.00,VWS V14.00,2013-04-02 00:33:00,
2013-04-01 20:35:00,30.0,12.2,30.01,WNW,285,10.0,25.0,47,0.00,,---,0.00,VWS V14.00,2013-04-02 00:35:00,
2013-04-01 20:37:00,30.0,12.2,30.01,West,277,16.0,25.0,47,0.00,,---,0.00,VWS V14.00,2013-04-02 00:37:00,
2013-04-01 20:38:00,30.0,12.2,30.01,WSW,244,11.0,25.0,47,0.00,,---,0.00,VWS V14.00,2013-04-02 00:38:00,
2013-04-01 20:40:00,30.0,12.2,30.01,West,270,13.0,25.0,47,0.00,,---,0.00,VWS V14.00,2013-04-02 00:40:00,
2013-04-01 20:43:00,29.8,11.6,30.01,West,275,15.0,25.0,46,0.00,,---,0.00,VWS V14.00,2013-04-02 00:43:00,
2013-04-01 20:45:00,29.7,11.5,30.01,WNW,294,11.0,25.0,46,0.00,,---,0.00,VWS V14.00,2013-04-02 00:45:00,
2013-04-01 20:48:00,29.7,11.9,30.02,West,277,9.0,25.0,47,0.00,,---,0.00,VWS V14.00,2013-04-02 00:48:00,
2013-04-01 20:50:00,29.5,11.8,30.02,WNW,287,9.0,25.0,47,0.00,,---,0.00,VWS V14.00,2013-04-02 00:50:00,
2013-04-01 20:53:00,29.5,11.8,30.02,WNW,302,11.0,25.0,47,0.00,,---,0.00,VWS V14.00,2013-04-02 00:53:00,
2013-04-01 20:55:00,29.4,12.1,30.02,WNW,295,9.0,25.0,48,0.00,,---,0.00,VWS V14.00,2013-04-02 00:55:00,
2013-04-01 20:58:00,29.4,12.1,30.02,NW,305,15.0,25.0,48,0.00,,---,0.00,VWS V14.00,2013-04-02 00:58:00,
2013-04-01 21:00:00,29.4,12.1,30.02,West,267,10.0,25.0,48,0.00,,---,0.00,VWS V14.00,2013-04-02 01:00:00,
2013-04-01 21:03:00,29.3,12.5,30.02,NW,306,9.0,15.0,49,0.00,,---,0.00,VWS V14.00,2013-04-02 01:03:00,
2013-04-01 21:05:00,29.3,12.5,30.02,WNW,295,16.0,16.0,49,0.00,,---,0.00,VWS V14.00,2013-04-02 01:05:00,
2013-04-01 21:08:00,29.3,12.5,30.02,WNW,298,18.0,26.0,49,0.00,,---,0.00,VWS V14.00,2013-04-02 01:08:00,
2013-04-01 21:10:00,29.3,12.1,30.02,West,281,15.0,26.0,48,0.00,,---,0.00,VWS V14.00,2013-04-02 01:10:00,
2013-04-01 21:14:00,29.1,12.3,30.02,SW,223,15.0,26.0,49,0.00,,---,0.00,VWS V14.00,2013-04-02 01:14:00,
2013-04-01 21:15:00,29.1,12.3,30.02,West,280,11.0,26.0,49,0.00,,---,0.00,VWS V14.00,2013-04-02 01:15:00,
2013-04-01 21:19:00,29.1,12.3,30.02,West,281,18.0,26.0,49,0.00,,---,0.00,VWS V14.00,2013-04-02 01:19:00,
2013-04-01 21:20:00,29.0,12.2,30.02,West,275,15.0,26.0,49,0.00,,---,0.00,VWS V14.00,2013-04-02 01:20:00,
2013-04-01 21:24:00,29.0,12.2,30.02,WNW,302,16.0,26.0,49,0.00,,---,0.00,VWS V14.00,2013-04-02 01:24:00,
2013-04-01 21:25:00,29.0,12.2,30.02,WNW,289,14.0,26.0,49,0.00,,---,0.00,VWS V14.00,2013-04-02 01:25:00,
2013-04-01 21:29:00,28.8,12.1,30.02,West,280,15.0,26.0,49,0.00,,---,0.00,VWS V14.00,2013-04-02 01:29:00,
2013-04-01 21:30:00,28.8,12.1,30.03,WNW,296,16.0,26.0,49,0.00,,---,0.00,VWS V14.00,2013-04-02 01:30:00,
2013-04-01 21:34:00,28.7,12.0,30.03,WNW,285,10.0,26.0,49,0.00,,---,0.00,VWS V14.00,2013-04-02 01:34:00,
2013-04-01 21:35:00,28.7,12.0,30.03,WNW,291,14.0,26.0,49,0.00,,---,0.00,VWS V14.00,2013-04-02 01:35:00,
2013-04-01 21:39:00,28.5,11.8,30.03,WNW,287,9.0,26.0,49,0.00,,---,0.00,VWS V14.00,2013-04-02 01:39:00,
2013-04-01 21:40:00,28.5,11.8,30.03,West,267,10.0,26.0,49,0.00,,---,0.00,VWS V14.00,2013-04-02 01:40:00,
2013-04-01 21:44:00,28.4,11.7,30.03,WNW,302,11.0,26.0,49,0.00,,---,0.00,VWS V14.00,2013-04-02 01:44:00,
2013-04-01 21:45:00,28.4,11.7,30.03,West,275,6.0,26.0,49,0.00,,---,0.00,VWS V14.00,2013-04-02 01:45:00,
2013-04-01 21:49:00,28.2,11.5,30.03,West,281,11.0,26.0,49,0.00,,---,0.00,VWS V14.00,2013-04-02 01:49:00,
2013-04-01 21:50:00,28.2,11.5,30.03,WNW,295,8.0,26.0,49,0.00,,---,0.00,VWS V14.00,2013-04-02 01:50:00,
2013-04-01 21:54:00,28.1,11.4,30.03,WNW,292,9.0,26.0,49,0.00,,---,0.00,VWS V14.00,2013-04-02 01:54:00,
2013-04-01 21:55:00,28.1,11.4,30.03,WNW,285,10.0,26.0,49,0.00,,---,0.00,VWS V14.00,2013-04-02 01:55:00,
2013-04-01 21:57:00,27.9,11.2,30.03,WNW,291,9.0,26.0,49,0.00,,---,0.00,VWS V14.00,2013-04-02 01:57:00,
2013-04-01 21:59:00,27.9,11.2,30.03,WNW,291,14.0,26.0,49,0.00,,---,0.00,VWS V14.00,2013-04-02 01:59:00,
2013-04-01 22:00:00,27.9,10.8,30.03,WSW,244,15.0,26.0,48,0.00,,---,0.00,VWS V14.00,2013-04-02 02:00:00,
2013-04-01 22:02:00,27.9,10.8,30.03,WNW,287,14.0,14.0,48,0.00,,---,0.00,VWS V14.00,2013-04-02 02:02:00,
2013-04-01 22:04:00,27.9,10.8,30.03,SW,230,4.0,14.0,48,0.00,,---,0.00,VWS V14.00,2013-04-02 02:04:00,
2013-04-01 22:05:00,27.9,10.8,30.03,West,274,10.0,14.0,48,0.00,,---,0.00,VWS V14.00,2013-04-02 02:05:00,
2013-04-01 22:07:00,27.9,10.8,30.03,West,277,9.0,16.0,48,0.00,,---,0.00,VWS V14.00,2013-04-02 02:07:00,
2013-04-01 22:09:00,27.8,10.7,30.03,WNW,285,6.0,16.0,48,0.00,,---,0.00,VWS V14.00,2013-04-02 02:09:00,
2013-04-01 22:10:00,27.8,10.7,30.03,West,274,2.0,16.0,48,0.00,,---,0.00,VWS V14.00,2013-04-02 02:10:00,
2013-04-01 22:12:00,27.8,11.1,30.03,WNW,288,8.0,16.0,49,0.00,,---,0.00,VWS V14.00,2013-04-02 02:12:00,
2013-04-01 22:14:00,27.6,10.5,30.03,NW,304,11.0,16.0,48,0.00,,---,0.00,VWS V14.00,2013-04-02 02:14:00,
2013-04-01 22:15:00,27.6,10.5,30.03,WNW,287,8.0,16.0,48,0.00,,---,0.00,VWS V14.00,2013-04-02 02:15:00,
2013-04-01 22:17:00,27.6,10.5,30.04,WNW,291,7.0,16.0,48,0.00,,---,0.00,VWS V14.00,2013-04-02 02:17:00,
2013-04-01 22:19:00,27.6,10.5,30.04,West,277,10.0,16.0,48,0.00,,---,0.00,VWS V14.00,2013-04-02 02:19:00,
2013-04-01 22:20:00,27.6,10.5,30.04,WNW,289,7.0,16.0,48,0.00,,---,0.00,VWS V14.00,2013-04-02 02:20:00,
2013-04-01 22:22:00,27.6,10.5,30.04,WNW,289,7.0,16.0,48,0.00,,---,0.00,VWS V14.00,2013-04-02 02:22:00,
2013-04-01 22:23:00,27.6,10.5,30.04,WNW,295,7.0,16.0,48,0.00,,---,0.00,VWS V14.00,2013-04-02 02:23:00,
2013-04-01 22:25:00,27.6,10.9,30.04,WNW,285,8.0,16.0,49,0.00,,---,0.00,VWS V14.00,2013-04-02 02:25:00,
2013-04-01 22:27:00,27.5,10.9,30.04,West,274,7.0,16.0,49,0.00,,---,0.00,VWS V14.00,2013-04-02 02:27:00,
2013-04-01 22:28:00,27.5,10.9,30.04,WNW,291,6.0,16.0,49,0.00,,---,0.00,VWS V14.00,2013-04-02 02:28:00,
2013-04-01 22:30:00,27.5,10.9,30.04,WNW,287,9.0,16.0,49,0.00,,---,0.00,VWS V14.00,2013-04-02 02:30:00,
2013-04-01 22:33:00,27.5,10.9,30.04,West,265,7.0,16.0,49,0.00,,---,0.00,VWS V14.00,2013-04-02 02:33:00,
2013-04-01 22:35:00,27.5,10.9,30.04,West,272,8.0,16.0,49,0.00,,---,0.00,VWS V14.00,2013-04-02 02:35:00,
2013-04-01 22:38:00,27.5,10.9,30.04,WNW,294,8.0,16.0,49,0.00,,---,0.00,VWS V14.00,2013-04-02 02:38:00,
2013-04-01 22:40:00,27.3,10.7,30.04,WNW,295,7.0,16.0,49,0.00,,---,0.00,VWS V14.00,2013-04-02 02:40:00,
2013-04-01 22:41:00,27.3,10.7,30.04,WNW,296,6.0,16.0,49,0.00,,---,0.00,VWS V14.00,2013-04-02 02:41:00,
2013-04-01 22:43:00,27.3,11.1,30.04,WNW,295,6.0,16.0,50,0.00,,---,0.00,VWS V14.00,2013-04-02 02:43:00,
2013-04-01 22:45:00,27.3,11.1,30.04,WNW,284,10.0,16.0,50,0.00,,---,0.00,VWS V14.00,2013-04-02 02:45:00,
2013-04-01 22:46:00,27.3,11.1,30.04,WNW,295,9.0,16.0,50,0.00,,---,0.00,VWS V14.00,2013-04-02 02:46:00,
2013-04-01 22:48:00,27.2,11.0,30.04,WNW,295,6.0,16.0,50,0.00,,---,0.00,VWS V14.00,2013-04-02 02:48:00,
2013-04-01 22:50:00,27.2,11.0,30.04,WNW,288,16.0,17.0,50,0.00,,---,0.00,VWS V14.00,2013-04-02 02:50:00,
2013-04-01 22:52:00,27.3,11.1,30.04,WNW,294,8.0,17.0,50,0.00,,---,0.00,VWS V14.00,2013-04-02 02:52:00,
2013-04-01 22:53:00,27.3,11.1,30.04,WNW,288,2.0,17.0,50,0.00,,---,0.00,VWS V14.00,2013-04-02 02:53:00,
2013-04-01 22:55:00,27.2,11.0,30.04,WNW,284,10.0,17.0,50,0.00,,---,0.00,VWS V14.00,2013-04-02 02:55:00,
2013-04-01 22:57:00,27.2,11.5,30.04,West,281,6.0,17.0,51,0.00,,---,0.00,VWS V14.00,2013-04-02 02:57:00,
2013-04-01 22:58:00,27.2,11.5,30.04,WNW,284,6.0,17.0,51,0.00,,---,0.00,VWS V14.00,2013-04-02 02:58:00,
2013-04-01 23:00:00,27.2,11.5,30.04,West,281,10.0,17.0,51,0.00,,---,0.00,VWS V14.00,2013-04-02 03:00:00,
2013-04-01 23:02:00,27.2,11.5,30.04,West,267,7.0,9.0,51,0.00,,---,0.00,VWS V14.00,2013-04-02 03:02:00,
2013-04-01 23:03:00,27.2,11.9,30.04,WNW,289,7.0,9.0,52,0.00,,---,0.00,VWS V14.00,2013-04-02 03:03:00,
2013-04-01 23:05:00,27.0,11.7,30.04,WNW,299,7.0,10.0,52,0.00,,---,0.00,VWS V14.00,2013-04-02 03:05:00,
2013-04-01 23:07:00,27.0,11.7,30.04,West,277,8.0,10.0,52,0.00,,---,0.00,VWS V14.00,2013-04-02 03:07:00,
2013-04-01 23:08:00,27.0,11.7,30.04,NW,304,6.0,10.0,52,0.00,,---,0.00,VWS V14.00,2013-04-02 03:08:00,
2013-04-01 23:09:00,27.0,11.7,30.04,NW,304,4.0,10.0,52,0.00,,---,0.00,VWS V14.00,2013-04-02 03:09:00,
2013-04-01 23:10:00,27.0,11.7,30.04,West,280,8.0,10.0,52,0.00,,---,0.00,VWS V14.00,2013-04-02 03:10:00,
2013-04-01 23:12:00,27.0,11.7,30.04,WNW,289,10.0,13.0,52,0.00,,---,0.00,VWS V14.00,2013-04-02 03:12:00,
2013-04-01 23:13:00,27.0,11.7,30.04,WNW,292,10.0,13.0,52,0.00,,---,0.00,VWS V14.00,2013-04-02 03:13:00,
2013-04-01 23:14:00,27.0,11.7,30.04,WNW,301,6.0,13.0,52,0.00,,---,0.00,VWS V14.00,2013-04-02 03:14:00,
2013-04-01 23:16:00,27.0,12.2,30.04,WNW,289,6.0,13.0,53,0.00,,---,0.00,VWS V14.00,2013-04-02 03:16:00,
2013-04-01 23:17:00,26.9,12.1,30.04,WNW,291,7.0,13.0,53,0.00,,---,0.00,VWS V14.00,2013-04-02 03:17:00,
2013-04-01 23:18:00,26.9,12.1,30.04,WNW,294,9.0,13.0,53,0.00,,---,0.00,VWS V14.00,2013-04-02 03:18:00,
2013-04-01 23:19:00,26.9,12.1,30.04,WNW,287,9.0,13.0,53,0.00,,---,0.00,VWS V14.00,2013-04-02 03:19:00,
2013-04-01 23:21:00,26.9,12.1,30.04,West,267,4.0,13.0,53,0.00,,---,0.00,VWS V14.00,2013-04-02 03:21:00,
2013-04-01 23:22:00,26.9,12.1,30.04,NW,306,6.0,13.0,53,0.00,,---,0.00,VWS V14.00,2013-04-02 03:22:00,
2013-04-01 23:24:00,26.7,12.3,30.04,WNW,284,7.0,13.0,54,0.00,,---,0.00,VWS V14.00,2013-04-02 03:24:00,
2013-04-01 23:27:00,26.7,12.3,30.04,West,277,8.0,13.0,54,0.00,,---,0.00,VWS V14.00,2013-04-02 03:27:00,
2013-04-01 23:28:00,26.7,12.3,30.04,WNW,294,7.0,13.0,54,0.00,,---,0.00,VWS V14.00,2013-04-02 03:28:00,
2013-04-01 23:29:00,26.6,12.2,30.04,WNW,287,6.0,13.0,54,0.00,,---,0.00,VWS V14.00,2013-04-02 03:29:00,
2013-04-01 23:30:00,26.6,12.2,30.04,WNW,287,2.0,13.0,54,0.00,,---,0.00,VWS V14.00,2013-04-02 03:30:00,
2013-04-01 23:32:00,26.6,12.2,30.04,West,280,6.0,13.0,54,0.00,,---,0.00,VWS V14.00,2013-04-02 03:32:00,
2013-04-01 23:33:00,26.6,12.2,30.04,WNW,288,6.0,13.0,54,0.00,,---,0.00,VWS V14.00,2013-04-02 03:33:00,
2013-04-01 23:35:00,26.6,12.2,30.04,NW,316,6.0,13.0,54,0.00,,---,0.00,VWS V14.00,2013-04-02 03:35:00,
2013-04-01 23:37:00,26.4,12.0,30.04,NW,315,4.0,13.0,54,0.00,,---,0.00,VWS V14.00,2013-04-02 03:37:00,
2013-04-01 23:38:00,26.4,12.4,30.04,WNW,302,2.0,13.0,55,0.00,,---,0.00,VWS V14.00,2013-04-02 03:38:00,
2013-04-01 23:40:00,26.4,12.4,30.04,WNW,284,7.0,13.0,55,0.00,,---,0.00,VWS V14.00,2013-04-02 03:40:00,
2013-04-01 23:42:00,26.3,12.3,30.04,West,277,6.0,13.0,55,0.00,,---,0.00,VWS V14.00,2013-04-02 03:42:00,
2013-04-01 23:43:00,26.3,12.3,30.04,SW,226,4.0,13.0,55,0.00,,---,0.00,VWS V14.00,2013-04-02 03:43:00,
2013-04-01 23:45:00,26.3,12.3,30.04,WNW,288,4.0,13.0,55,0.00,,---,0.00,VWS V14.00,2013-04-02 03:45:00,
2013-04-01 23:47:00,26.1,12.2,30.04,West,277,2.0,13.0,55,0.00,,---,0.00,VWS V14.00,2013-04-02 03:47:00,
2013-04-01 23:48:00,26.1,12.2,30.04,WSW,250,1.0,13.0,55,0.00,,---,0.00,VWS V14.00,2013-04-02 03:48:00,
2013-04-01 23:50:00,26.0,12.1,30.04,West,275,6.0,13.0,55,0.00,,---,0.00,VWS V14.00,2013-04-02 03:50:00,
2013-04-01 23:52:00,26.0,12.5,30.04,WNW,282,7.0,13.0,56,0.00,,---,0.00,VWS V14.00,2013-04-02 03:52:00,
2013-04-01 23:53:00,26.0,12.5,30.04,WNW,282,2.0,13.0,56,0.00,,---,0.00,VWS V14.00,2013-04-02 03:53:00,
2013-04-01 23:55:00,25.8,12.3,30.04,West,263,4.0,13.0,56,0.00,,---,0.00,VWS V14.00,2013-04-02 03:55:00,
2013-04-01 23:57:00,25.8,12.3,30.04,WNW,282,7.0,13.0,56,0.00,,---,0.00,VWS V14.00,2013-04-02 03:57:00,
2013-04-01 23:58:00,25.8,12.3,30.04,WNW,288,2.0,13.0,56,0.00,,---,0.00,VWS V14.00,2013-04-02 03:58:00,